GFSMW_sfc_wetblb_000.txt.gz
Wetbulb
71.73 73.01 73.00 73.95 74.86 75.67 76.50 76.92 76.59 77.69 77.05 76.90 75.02 73.45 71.80 72.95 73.27 74.38 75.01 74.37 73.62 73.26 73.15 72.75 73.13 74.04 73.16 72.81 73.65 73.53 71.79 71.95 72.38 70.94 70.65 70.30 72.67 73.28 74.07 73.68 73.13 73.10 73.92
69.81 72.39 73.89 74.27 74.48 75.21 76.00 76.23 76.57 77.16 76.60 76.77 75.41 74.82 75.38 73.83 72.90 74.52 73.65 72.57 72.38 72.63 72.48 72.35 72.95 73.09 71.83 72.60 73.18 72.31 71.37 72.20 71.87 69.16 69.04 65.78 69.51 71.68 72.87 73.36 73.40 72.02 73.12
69.16 71.88 72.69 74.47 75.14 74.12 75.40 75.86 76.12 76.28 76.33 75.22 75.92 75.15 74.36 71.91 68.78 69.01 71.88 72.33 72.11 72.06 72.16 72.33 72.60 72.67 73.68 71.71 72.56 72.08 70.39 70.16 71.54 71.36 67.49 64.67 65.38 68.76 72.06 72.29 72.16 71.92 71.94
69.04 71.57 72.16 74.41 74.85 74.14 74.39 75.78 76.67 76.70 76.07 74.70 73.36 72.79 70.37 66.81 68.47 69.16 71.78 70.64 71.26 72.31 72.03 72.06 72.35 73.19 73.29 71.07 72.80 71.76 69.11 69.42 69.30 69.60 70.80 69.58 70.77 66.03 65.52 70.34 71.96 72.39 71.60
68.73 71.89 72.70 74.00 74.94 75.32 74.62 75.47 76.43 76.43 75.45 74.43 73.48 73.04 68.85 69.62 70.93 69.73 70.30 71.74 71.86 72.56 71.73 71.54 72.03 72.97 73.04 72.94 72.02 72.32 70.42 70.11 68.69 67.81 68.53 69.03 69.59 70.26 66.69 65.29 68.04 70.51 71.53
71.80 72.86 73.88 74.49 68.17 72.67 74.30 74.96 75.80 75.62 74.65 73.60 72.16 71.83 70.60 69.67 70.05 70.25 69.69 70.71 71.83 72.15 71.77 71.32 72.01 72.66 72.67 72.06 71.45 72.01 71.44 70.59 69.43 68.82 68.04 67.62 66.85 68.05 67.28 65.80 66.85 67.20 69.26
67.62 65.89 67.18 67.73 65.21 68.89 72.61 71.35 74.34 73.63 73.77 72.76 72.01 71.39 70.61 70.30 69.87 69.80 70.12 70.27 70.97 71.26 71.08 71.37 71.48 71.96 72.81 72.26 72.19 71.49 70.45 70.30 68.98 67.97 68.20 68.74 68.70 69.69 69.55 68.18 66.53 65.77 68.05
67.36 67.14 68.90 70.68 71.71 71.33 71.08 70.63 72.42 72.56 71.83 72.27 72.27 72.09 70.65 68.05 70.28 70.29 71.34 71.55 70.37 71.47 71.82 71.66 71.62 71.79 72.12 72.06 71.21 72.34 70.08 70.83 69.20 69.15 69.69 69.94 70.27 70.53 69.97 68.36 66.71 64.28 65.93
68.88 67.36 67.30 64.66 70.12 70.55 70.43 71.46 71.94 71.72 71.85 71.46 72.40 71.76 70.71 68.89 69.23 70.63 71.18 72.06 71.95 71.92 71.76 71.41 71.11 70.85 71.24 72.28 70.78 70.21 70.14 69.16 69.00 68.40 68.99 67.88 68.10 70.24 69.78 70.92 70.46 66.65 62.26
67.40 67.73 69.38 69.49 69.63 70.38 71.00 70.98 71.47 71.10 71.75 71.35 72.51 71.30 69.57 69.10 69.27 69.79 69.57 70.64 69.18 71.14 71.27 71.49 71.04 70.29 70.13 70.53 70.21 69.38 70.46 68.99 68.92 69.14 69.33 68.67 67.42 69.10 68.97 70.14 70.75 69.80 66.95
68.25 68.77 68.04 69.01 69.65 70.16 70.11 70.20 70.36 70.88 70.80 70.45 71.83 70.85 68.48 69.04 69.93 68.57 68.48 68.71 70.25 69.03 68.15 69.03 71.07 70.64 69.78 69.84 68.85 69.24 69.02 68.64 68.11 69.20 68.55 67.94 68.02 67.64 68.83 69.41 69.68 68.14 68.31
67.99 68.30 69.09 69.34 69.38 69.40 70.08 69.12 68.63 69.76 70.36 71.43 71.44 70.09 69.56 69.68 70.06 69.56 69.27 68.94 69.43 70.64 68.60 68.65 68.17 69.00 68.96 68.80 68.59 68.12 68.46 67.59 67.35 67.59 66.99 66.24 67.76 67.85 68.40 69.04 68.56 68.79 69.13
69.82 68.96 69.17 70.26 70.04 70.48 70.85 69.02 67.38 70.05 70.38 72.24 70.13 70.96 69.26 70.17 70.31 69.90 70.17 69.87 69.75 69.05 69.14 69.27 69.34 68.53 67.26 66.81 65.73 64.93 63.91 64.00 64.52 63.87 63.42 63.37 65.07 65.33 65.31 67.33 67.36 68.47 68.47
69.54 68.59 69.55 70.63 71.26 71.76 70.76 70.13 69.73 69.75 70.48 71.03 70.45 70.11 69.14 68.75 70.85 71.27 70.83 70.52 70.17 68.89 68.27 67.34 67.23 67.44 67.66 66.68 65.00 63.64 63.07 63.22 61.99 61.28 60.74 61.05 61.28 61.53 62.71 64.80 64.80 65.89 65.91
69.14 69.15 69.43 70.39 71.01 71.29 71.78 71.43 71.41 70.80 71.73 70.51 70.45 70.48 69.42 71.68 70.15 70.91 70.63 70.30 69.88 69.44 68.41 66.83 67.58 67.15 66.11 65.58 64.60 63.91 62.84 61.80 60.25 59.30 59.31 59.39 59.95 59.78 60.32 61.28 59.59 60.85 64.39
67.88 68.73 70.14 70.13 69.94 70.53 70.91 71.63 71.45 71.15 71.82 70.08 70.49 70.56 70.85 69.69 69.06 70.36 69.48 69.90 69.33 69.01 68.19 67.40 66.57 66.09 64.70 61.60 62.75 63.87 62.97 61.31 59.66 57.66 56.86 55.92 55.27 56.42 57.49 58.64 59.00 57.83 58.84
67.36 67.25 67.74 68.11 68.70 68.62 69.69 69.72 71.22 72.03 72.14 69.16 70.74 68.81 70.35 69.25 69.16 68.94 69.18 69.01 67.87 67.57 66.64 63.67 63.13 61.74 59.36 56.70 60.34 62.73 64.51 61.82 61.62 60.19 59.75 59.15 57.66 57.51 55.77 58.04 56.87 55.11 56.87
66.05 66.46 66.50 66.91 66.59 66.61 66.66 67.22 67.64 68.42 70.46 70.27 68.54 68.56 69.04 68.46 68.18 68.46 67.19 67.45 66.33 65.04 63.45 62.00 60.85 58.69 52.98 52.78 55.27 60.59 63.60 60.89 57.06 58.07 57.38 55.28 54.08 54.60 57.83 55.68 52.70 50.23 49.64
65.29 64.78 64.70 64.23 63.10 62.09 62.65 64.44 65.97 66.83 68.16 69.75 69.46 67.73 67.11 67.40 65.85 66.31 66.03 64.74 63.28 60.31 59.45 58.76 58.15 56.28 51.55 49.92 51.63 58.70 57.30 54.73 52.58 52.27 52.07 53.33 52.80 53.79 55.92 55.35 52.52 51.19 50.58
63.81 61.87 60.87 59.96 59.21 58.93 60.19 60.46 63.04 63.82 64.80 63.82 65.27 63.76 63.37 60.61 59.28 60.47 59.09 58.92 59.11 57.97 55.85 54.74 54.23 52.72 51.16 47.70 48.38 55.70 55.53 52.73 51.36 49.71 48.82 49.98 49.45 49.43 51.35 56.26 55.22 51.53 51.25
59.79 60.03 58.65 57.46 56.77 56.45 55.42 53.60 53.84 53.23 55.08 56.79 57.70 56.89 56.10 55.08 54.95 53.74 54.36 54.19 52.43 51.63 51.01 50.87 50.38 50.74 50.21 47.85 47.22 48.28 54.79 52.51 50.32 49.40 48.60 47.71 47.12 45.57 45.81 48.23 50.82 50.75 52.80
58.72 57.73 56.29 54.91 54.93 54.38 52.47 51.23 50.49 52.83 53.76 53.80 53.72 53.38 52.70 53.36 52.06 51.01 50.47 49.55 48.64 47.50 46.80 46.20 46.40 47.37 47.77 47.61 46.85 46.83 47.57 49.40 47.67 46.65 46.87 46.32 45.10 44.41 45.19 46.95 46.18 47.39 49.17
56.56 56.27 54.93 53.53 53.40 53.18 52.06 49.93 50.79 51.40 51.01 50.72 50.71 50.81 51.22 51.70 51.44 49.85 49.19 47.99 48.15 46.74 45.91 45.56 45.22 45.62 47.36 47.50 46.58 46.47 47.45 48.18 47.25 47.72 46.89 46.16 44.52 45.47 46.73 46.51 47.96 48.76 48.24
55.17 55.11 54.12 53.12 52.42 52.52 52.15 51.46 51.84 51.99 51.31 50.66 50.72 51.38 51.43 52.00 52.31 51.91 51.73 49.07 48.66 46.94 46.19 45.46 45.43 45.98 46.56 47.14 48.49 48.15 48.31 48.46 48.48 48.35 48.10 48.20 47.95 47.85 48.38 49.36 50.25 49.43 48.50
54.81 54.18 53.64 54.16 53.83 53.70 53.37 53.81 53.17 52.60 51.11 50.34 48.52 47.25 47.21 45.70 45.31 45.96 46.66 45.98 45.58 46.09 45.84 45.55 44.87 43.65 41.44 41.42 40.58 44.59 48.68 48.53 45.91 45.81 48.69 48.89 48.95 48.82 48.61 48.30 48.45 46.51 47.40
54.46 54.20 54.46 54.60 54.99 55.26 54.83 55.42 56.18 55.68 53.37 50.29 48.27 45.79 45.08 44.80 45.12 43.98 41.87 42.56 42.11 40.36 39.08 39.08 42.60 42.73 40.52 39.96 39.19 39.38 40.12 42.08 42.38 48.82 49.00 48.36 47.66 45.81 45.52 45.81 46.67 47.29 46.27

GFSMW_sfc_wetblb_003.txt.gz
Wetbulb
69.29 70.51 71.62 72.46 73.17 73.37 73.08 72.85 72.67 72.97 71.91 72.15 69.38 68.93 67.45 68.34 68.05 68.63 70.31 70.18 69.95 70.20 69.96 69.05 70.05 69.60 69.63 68.93 69.02 69.47 68.39 68.98 70.08 68.27 67.82 68.85 70.10 70.54 71.69 71.16 70.78 72.01 73.05
68.36 69.33 70.42 72.01 71.89 72.33 72.76 72.25 72.07 72.67 72.23 71.53 69.98 68.83 68.13 68.36 68.21 68.99 69.67 69.90 69.78 69.39 69.35 69.22 69.09 69.00 69.25 69.05 69.52 68.95 67.56 68.73 69.17 65.36 65.86 62.70 65.24 69.24 70.96 71.08 70.64 70.21 72.01
67.75 67.71 67.44 66.69 70.19 72.06 72.24 71.47 71.54 71.80 71.55 70.79 69.67 68.72 67.58 66.70 66.79 67.69 67.42 69.14 69.64 68.95 68.51 68.59 68.89 69.20 68.95 68.84 68.91 69.29 67.11 66.54 69.00 68.52 65.12 61.87 60.57 65.66 68.97 69.47 69.85 70.04 70.02
68.86 67.17 62.50 67.18 69.63 71.69 72.58 72.27 71.81 71.57 71.19 70.89 68.60 67.10 66.37 64.65 64.92 66.35 66.23 67.72 69.71 69.14 69.23 68.87 69.31 69.49 69.02 68.57 68.82 69.38 67.67 67.29 65.92 67.31 69.50 67.47 66.86 63.23 62.55 67.09 69.24 69.94 69.40
68.83 68.66 65.38 69.41 71.53 72.81 71.51 68.10 72.43 71.48 70.99 70.41 68.67 67.13 65.46 65.78 66.16 66.23 65.79 66.12 67.20 68.25 69.77 68.91 68.88 68.93 69.02 69.18 68.75 68.10 66.75 66.73 66.12 64.93 65.46 66.17 67.09 67.40 64.67 61.93 64.24 68.08 69.25
70.18 71.22 67.88 67.02 64.79 71.57 71.26 68.76 71.27 70.36 69.15 68.31 67.58 66.71 65.90 66.01 65.15 65.20 65.68 65.93 66.90 67.49 68.84 68.93 68.50 68.59 69.27 68.64 69.50 68.89 67.49 67.13 66.35 65.94 66.51 65.73 65.30 64.54 64.73 62.20 62.49 63.64 66.71
69.70 66.75 65.61 65.50 65.58 67.20 72.08 71.88 69.83 68.15 68.11 67.48 67.63 67.07 65.30 64.83 64.68 65.60 66.11 65.04 65.60 66.29 67.24 67.67 67.56 68.23 69.09 68.53 69.02 69.14 68.19 67.51 66.93 66.48 66.61 66.97 66.74 67.42 66.04 64.35 63.31 63.23 65.95
64.26 63.64 65.85 65.85 68.43 69.22 69.39 69.85 68.41 66.98 67.22 67.37 66.87 66.97 65.75 65.28 65.84 66.39 66.26 65.47 65.32 65.99 67.26 67.60 68.19 68.79 69.13 68.62 68.89 68.53 67.33 67.08 66.84 66.19 67.22 67.26 67.98 68.23 67.31 65.21 63.39 60.61 62.43
64.25 65.59 65.53 67.78 67.97 66.90 67.98 68.22 67.71 67.42 66.95 66.99 67.46 66.80 66.13 66.06 66.61 67.22 67.20 66.57 65.79 67.13 67.47 68.15 68.10 68.48 68.12 68.07 67.60 67.31 67.87 67.94 66.93 67.02 67.72 67.67 66.72 66.42 67.94 67.20 64.96 63.07 59.17
64.94 64.63 63.99 63.76 65.98 66.36 66.62 67.20 67.83 66.82 66.83 67.63 67.60 66.95 66.37 65.90 65.86 66.10 66.01 66.33 67.31 67.18 67.22 67.35 67.24 67.40 67.56 67.92 67.72 67.11 67.96 67.20 66.86 66.93 66.43 65.45 64.54 65.25 67.54 66.81 66.11 66.30 62.77
64.34 65.48 63.96 64.91 66.04 66.23 66.47 66.07 67.01 66.81 66.61 66.90 67.82 65.70 65.93 66.28 65.64 65.64 66.15 66.80 66.51 67.36 67.18 67.09 67.16 66.73 66.62 67.07 67.36 67.20 67.56 67.04 66.37 66.55 66.64 66.48 66.75 66.82 67.00 66.53 66.60 64.92 64.94
65.48 65.65 64.27 65.04 65.89 65.88 65.76 65.83 65.95 66.39 66.67 67.58 67.68 66.14 65.13 66.84 66.04 65.95 66.35 67.08 67.00 66.77 66.68 67.17 67.00 66.23 66.41 66.63 66.68 66.73 66.77 66.39 65.99 65.92 65.19 65.42 66.51 64.72 65.25 66.43 65.73 66.05 65.60
63.76 63.77 64.71 66.22 66.77 67.46 65.84 63.76 63.59 65.90 66.73 68.09 66.47 67.43 66.74 65.90 65.11 65.68 66.51 66.53 66.10 65.99 66.40 66.95 65.97 65.94 65.38 64.51 63.55 63.48 62.90 62.07 61.32 61.92 62.18 62.87 63.96 63.23 63.83 64.17 64.19 65.27 65.49
65.34 65.03 65.97 66.25 68.43 69.10 68.85 65.33 65.12 66.39 66.94 67.72 66.59 65.97 66.83 66.90 67.48 66.84 66.98 66.24 66.33 65.30 65.60 66.37 65.72 65.13 64.37 63.81 63.84 63.67 62.33 61.10 60.18 60.21 59.95 59.71 60.33 61.02 62.35 60.84 60.25 62.10 63.68
66.33 66.20 65.46 67.17 67.26 67.85 68.04 66.54 66.79 65.97 66.40 67.07 66.63 65.50 65.50 67.03 67.80 67.11 66.82 66.53 66.06 64.96 65.25 64.82 63.93 63.92 64.19 63.98 62.92 62.45 60.78 59.38 58.18 58.10 57.64 58.09 59.78 59.62 59.50 58.26 57.64 59.83 61.16
66.65 66.77 66.67 67.22 66.00 67.39 66.87 67.89 68.56 67.27 67.93 67.24 66.95 67.27 65.96 66.10 66.90 66.44 65.84 65.33 65.07 64.79 64.53 62.43 59.84 58.34 59.78 61.70 62.20 62.21 60.64 59.04 57.42 55.21 54.64 55.02 56.08 58.49 58.10 57.18 57.76 58.68 58.32
64.50 64.65 64.17 63.93 62.88 62.87 63.68 63.67 64.95 66.19 67.63 66.07 67.93 67.59 66.75 65.93 66.23 65.62 64.72 63.61 61.53 61.43 59.80 58.53 54.34 51.48 51.72 56.34 60.20 61.58 60.24 59.38 57.97 57.66 58.10 58.17 57.95 56.60 54.72 52.65 52.69 53.54 55.62
62.83 61.67 61.39 60.49 59.45 59.21 59.98 61.76 64.03 64.82 65.59 66.69 66.50 66.58 66.58 65.67 65.32 64.42 62.94 61.19 59.77 57.83 56.67 54.85 51.59 49.34 49.95 53.21 58.54 57.75 53.65 51.64 51.39 52.66 52.57 51.40 52.11 54.36 51.57 48.98 48.42 48.63 49.17
60.51 59.27 58.68 57.93 57.51 57.85 58.64 59.89 62.27 63.09 64.38 64.96 64.84 65.25 65.35 64.38 63.77 61.64 59.92 57.44 54.74 52.44 51.03 50.47 50.80 49.47 48.32 50.68 53.61 52.76 50.57 48.86 47.71 49.51 51.03 50.69 52.57 54.54 53.01 50.28 49.58 49.77 50.05
58.42 57.83 58.31 57.29 55.81 55.38 54.67 53.20 52.52 53.07 54.60 60.02 61.75 61.11 61.19 60.20 59.01 58.65 56.38 54.04 52.12 50.75 49.59 48.52 48.06 49.46 47.58 48.00 49.79 51.64 50.09 48.03 47.99 47.90 47.47 50.26 49.29 49.46 51.30 52.78 51.19 49.95 50.30
57.98 57.32 55.73 54.08 53.95 52.96 52.21 50.69 51.07 50.68 52.67 55.02 55.44 55.08 55.22 54.57 53.22 51.81 50.81 49.76 49.66 48.80 47.99 48.39 48.22 48.14 48.11 47.20 47.44 48.83 49.80 48.72 47.70 46.69 45.97 46.29 47.65 45.90 45.96 46.32 45.80 46.04 48.66
56.72 55.73 53.76 53.02 52.86 52.27 51.11 49.64 48.86 50.56 51.36 52.04 52.21 52.65 52.41 51.94 50.90 49.48 48.86 48.23 47.71 46.98 46.96 47.13 47.07 47.80 48.08 48.20 47.04 47.15 48.06 49.06 46.62 46.13 47.11 47.43 46.00 45.00 45.77 47.71 47.09 47.56 49.19
55.76 54.79 53.15 52.28 52.03 51.77 50.94 49.15 50.00 50.82 50.88 50.62 50.34 50.45 50.62 50.49 50.04 48.93 48.08 47.49 47.60 46.78 46.00 46.00 45.64 46.24 47.31 47.45 46.96 47.04 48.11 48.88 47.81 47.81 47.86 47.47 44.94 45.23 46.22 47.05 48.03 47.77 46.92
54.53 54.28 52.98 51.65 51.06 51.58 51.40 51.00 51.24 51.56 51.12 50.62 50.73 51.13 50.27 50.06 49.72 49.11 48.64 47.42 46.56 46.08 45.74 45.23 44.94 45.33 45.46 46.22 47.45 47.99 48.73 49.48 49.16 49.46 48.27 47.95 47.90 47.26 47.08 46.25 44.23 44.39 44.37
54.63 54.59 52.69 51.75 51.40 52.38 51.78 51.87 51.75 50.19 47.46 46.45 45.22 44.47 44.29 43.60 42.69 43.31 44.45 43.72 41.75 44.98 44.68 44.24 43.61 41.11 39.82 39.97 40.94 44.15 46.73 43.96 42.95 41.91 42.77 42.26 42.57 42.61 42.67 42.37 41.40 40.96 41.55
54.18 54.20 54.22 53.93 54.09 53.45 52.78 52.01 52.12 49.30 45.12 42.91 42.45 42.85 42.64 41.85 40.19 38.65 37.97 42.28 40.70 39.64 38.29 39.52 39.54 36.95 38.84 38.84 38.61 38.48 38.94 40.54 41.14 42.28 39.65 38.98 38.51 38.39 38.29 38.43 39.93 39.56 41.59

GFSMW_sfc_wetblb_006.txt.gz
Wetbulb
63.84 65.82 70.06 71.46 71.73 72.16 72.16 72.17 71.83 72.28 70.67 69.82 68.53 67.72 67.27 67.65 67.92 68.53 69.17 69.88 69.65 71.23 69.97 68.87 68.60 68.17 68.48 68.14 69.07 67.47 66.12 66.61 68.12 66.25 66.53 68.12 69.70 70.09 69.95 70.28 71.47 71.61 71.69
65.22 64.80 64.35 64.40 65.89 71.57 72.06 71.34 71.12 70.96 70.51 70.26 68.96 67.83 67.13 66.89 66.95 66.48 68.43 70.10 69.77 69.27 68.77 67.92 67.69 67.74 67.99 67.36 68.08 67.76 66.63 66.48 67.83 64.54 63.80 62.20 64.20 67.61 69.41 70.24 70.18 70.45 71.79
63.97 64.00 64.26 65.26 65.89 63.80 69.96 71.39 70.57 70.23 70.57 69.61 68.73 67.58 66.80 65.92 64.95 65.45 66.19 67.31 68.73 68.48 68.29 68.19 67.29 67.24 68.12 68.10 68.19 68.08 66.64 65.39 67.06 66.64 63.79 60.60 59.78 63.52 67.36 68.93 69.59 70.01 69.36
62.47 64.62 62.16 61.18 62.94 64.79 70.06 71.69 70.12 70.49 70.08 69.43 67.02 66.00 64.89 63.85 64.29 64.46 65.60 66.12 67.37 68.01 68.28 67.78 67.69 67.58 67.67 67.20 67.94 68.69 67.40 66.09 64.99 66.22 68.28 65.70 64.55 61.44 59.96 65.30 67.90 69.29 68.93
65.09 64.11 62.87 63.45 66.86 66.44 69.11 69.32 70.71 70.31 69.39 68.67 66.93 65.54 63.69 64.45 64.94 64.80 64.55 65.02 65.51 66.62 67.95 67.90 67.45 67.92 67.89 67.51 67.81 67.42 66.27 66.25 65.33 64.23 64.39 64.83 65.24 64.57 62.45 61.03 63.71 67.72 69.00
66.13 65.28 64.36 65.91 67.50 70.72 68.07 69.02 70.06 69.19 67.76 67.06 65.93 65.10 63.95 62.95 63.32 63.21 63.79 64.64 64.91 65.53 66.98 68.08 67.33 68.14 67.87 67.90 68.26 67.83 66.11 66.48 65.15 64.70 64.66 64.48 63.58 63.27 63.32 62.14 63.20 63.44 65.31
66.80 65.60 64.33 66.50 68.59 64.99 66.97 70.57 68.38 66.42 66.13 66.13 65.68 65.55 63.11 63.31 63.41 64.13 64.37 64.18 63.90 64.96 66.12 66.88 66.52 66.72 67.76 68.05 68.19 67.67 66.54 65.98 65.38 64.66 64.88 65.42 65.24 65.98 64.76 63.86 63.27 62.67 64.82
66.73 65.34 63.99 66.26 68.66 70.29 70.22 68.60 66.95 65.62 65.66 65.66 65.72 64.80 64.65 64.58 64.71 65.59 65.25 64.80 63.89 64.86 66.04 66.59 66.62 67.18 68.05 67.76 68.01 68.62 68.05 67.08 66.20 65.99 65.51 65.59 66.34 66.83 67.13 65.23 63.49 60.76 62.13
63.17 64.36 67.06 67.29 66.26 68.58 67.89 67.39 66.06 65.31 65.59 65.50 65.50 64.53 64.58 64.20 64.03 64.75 65.18 64.78 64.73 66.39 66.02 66.60 66.73 67.13 67.78 67.40 67.40 67.28 66.67 66.49 65.89 65.66 66.43 66.29 66.72 66.72 67.28 66.72 65.65 63.43 59.19
63.20 63.72 66.32 65.39 65.89 67.05 66.86 66.97 66.48 65.11 65.28 66.17 65.70 64.74 64.11 64.01 64.38 64.35 65.38 65.13 66.62 65.97 65.99 65.93 66.22 66.37 66.68 66.71 65.80 65.36 66.32 66.04 65.86 66.34 65.98 65.72 65.41 65.95 66.49 66.81 66.09 65.71 63.53
63.03 62.84 62.52 64.34 65.01 65.33 65.26 66.40 65.88 65.37 65.77 65.93 65.35 64.54 64.60 64.59 64.34 64.40 64.62 64.97 65.20 65.13 65.95 66.20 65.40 65.22 65.37 65.66 65.74 65.49 66.58 65.72 65.95 66.02 65.80 64.52 64.78 64.88 66.27 66.18 65.77 65.40 64.65
64.66 63.52 62.58 64.21 64.10 64.45 64.22 65.24 65.47 65.49 65.43 66.37 65.44 63.81 64.70 64.99 64.01 64.49 64.76 64.94 64.55 65.85 66.29 66.34 65.91 64.53 65.12 65.21 65.64 66.18 66.14 65.69 65.28 65.53 66.13 64.93 66.82 65.16 64.94 64.85 64.79 65.18 65.49
64.80 64.66 63.36 63.72 64.38 64.77 64.13 64.11 65.03 64.98 66.13 66.61 66.01 64.17 63.80 64.56 64.49 64.29 64.65 64.40 64.39 64.78 65.60 65.03 64.31 63.85 63.56 63.22 62.77 62.22 61.48 61.76 62.12 62.27 62.79 63.79 63.89 63.09 62.80 62.24 62.30 63.61 64.58
64.93 64.13 62.90 63.32 64.53 65.22 63.76 62.42 62.44 64.96 65.83 66.86 65.08 65.19 64.48 65.17 64.98 65.54 64.94 64.59 64.23 64.67 64.47 63.88 63.64 63.41 63.60 63.65 63.10 62.10 61.18 60.47 60.10 60.04 60.30 60.39 60.78 61.40 60.15 59.90 60.47 61.96 62.21
60.64 64.06 64.38 65.26 65.83 67.04 65.76 64.36 64.00 64.88 66.17 66.25 64.87 64.51 64.71 65.46 66.08 65.29 64.75 63.90 63.93 63.88 63.05 62.45 62.05 62.53 62.89 62.77 61.22 60.93 60.43 59.37 57.85 57.64 59.25 59.56 60.56 60.79 60.28 59.47 59.43 60.46 61.22
62.18 65.96 64.90 63.43 62.75 63.06 63.31 64.28 64.44 65.21 65.55 67.47 65.80 66.26 66.13 66.55 65.27 64.77 63.90 63.43 62.43 60.45 58.58 56.06 56.30 58.35 60.57 60.10 60.37 59.91 58.01 56.82 55.56 54.79 54.82 56.30 57.64 57.94 57.69 58.38 58.93 59.32 60.14
62.00 62.59 60.85 60.05 59.09 58.49 59.97 60.42 62.48 64.10 65.03 66.45 66.61 66.17 66.65 65.79 64.39 63.66 61.55 59.91 58.00 56.30 53.48 51.88 51.73 51.78 55.09 58.40 58.76 60.04 58.19 57.13 57.05 57.64 56.70 57.04 57.42 55.25 52.22 53.02 53.13 53.85 55.93
61.53 59.66 58.38 57.28 56.28 56.86 57.20 59.35 62.12 62.97 63.91 64.99 65.02 65.13 65.17 64.43 63.41 61.22 58.91 56.16 55.31 54.33 52.78 50.90 49.13 49.74 51.74 55.33 54.01 54.37 51.65 50.24 50.25 51.53 52.65 53.95 54.75 53.29 48.61 48.25 48.74 49.42 49.12
58.64 57.26 56.48 55.24 55.36 55.01 55.23 55.09 55.57 57.16 59.75 62.50 64.19 65.48 64.46 62.88 60.32 57.52 54.80 52.03 50.50 48.83 47.80 48.47 49.47 49.94 51.30 51.77 51.38 50.77 49.81 48.07 46.39 48.52 50.86 51.27 50.43 52.26 52.04 50.59 49.55 49.38 50.13
56.72 55.28 55.45 54.97 52.71 53.37 53.66 53.33 53.00 53.55 53.96 56.72 59.85 64.42 63.37 61.43 57.56 55.30 52.94 50.69 49.12 48.17 47.80 47.60 48.75 49.57 48.57 48.90 48.95 49.84 49.28 46.36 46.30 47.00 47.40 50.60 49.31 49.02 49.69 49.98 48.92 48.52 49.43
54.70 54.70 54.08 52.74 52.38 52.38 52.16 50.99 50.83 50.60 52.64 54.76 54.96 54.84 55.04 54.44 52.84 51.13 50.60 49.39 48.06 47.38 47.29 47.96 48.63 48.68 48.17 47.87 47.75 48.49 48.65 47.21 46.40 46.40 46.29 46.79 48.03 46.33 46.38 47.27 48.41 47.89 49.91
53.92 53.67 52.33 51.64 51.96 51.68 50.99 49.70 49.28 51.22 52.00 51.62 51.41 51.47 51.85 52.23 51.07 49.54 49.13 49.00 48.57 48.06 47.58 47.38 47.28 48.00 48.29 48.01 47.13 47.22 47.96 49.68 47.95 47.50 47.97 47.62 45.32 44.77 45.96 47.16 46.10 46.90 48.34
53.44 53.04 51.83 50.97 51.14 51.14 50.76 49.41 50.21 51.28 51.27 50.86 50.38 50.20 50.27 50.31 49.78 48.88 48.52 48.04 48.30 47.40 46.73 46.55 46.03 46.26 47.53 48.20 47.20 47.04 48.29 49.26 48.46 48.74 48.48 46.97 45.34 45.21 46.21 46.76 46.75 46.27 45.26
52.90 52.50 51.49 50.45 50.02 51.01 50.88 50.95 51.54 51.83 50.78 49.55 48.59 48.85 48.38 48.07 48.36 48.52 48.45 47.33 46.65 45.56 45.93 45.72 45.30 45.19 45.74 46.81 47.60 47.96 48.65 49.45 49.12 48.93 47.86 47.93 46.56 46.43 45.19 42.02 41.33 41.37 40.67
53.28 52.69 51.21 50.70 50.53 51.53 51.09 50.48 48.97 47.79 45.84 45.28 45.30 44.54 44.26 43.59 42.95 42.48 42.09 41.96 40.80 44.55 45.14 43.20 43.45 42.27 42.07 41.97 41.53 44.39 46.08 44.34 42.24 42.01 41.08 40.67 40.44 39.94 40.61 39.71 38.89 38.49 38.07
52.99 51.59 51.53 52.06 52.03 51.46 50.42 49.27 47.75 45.72 43.16 42.13 42.67 42.09 40.31 38.60 38.20 37.95 36.69 41.54 40.62 40.24 39.05 38.76 38.05 37.10 38.73 38.68 38.25 38.07 38.85 39.79 41.32 38.71 36.57 35.71 35.52 36.02 35.97 37.22 36.61 36.22 39.48

GFSMW_sfc_wetblb_012.txt.gz
Wetbulb
65.48 67.94 68.95 67.36 68.19 68.13 67.88 68.19 67.91 66.04 65.86 69.60 68.58 69.03 68.69 68.92 68.83 69.60 69.96 69.95 69.97 69.79 69.75 69.06 69.19 69.64 69.62 69.32 69.01 69.10 68.92 68.60 69.05 68.33 66.59 68.24 69.77 71.09 71.54 72.59 72.16 72.38 72.41
63.89 67.28 64.41 65.03 66.72 66.53 66.44 66.40 68.17 66.54 65.97 68.29 69.37 69.01 68.24 67.84 67.66 67.63 67.70 68.42 69.26 69.84 70.13 69.10 68.51 68.22 68.88 68.33 68.65 68.47 67.45 67.59 68.69 66.31 65.50 65.09 67.33 69.25 70.54 71.42 71.72 72.25 72.99
62.96 64.89 64.56 64.12 64.34 64.63 63.96 65.36 66.56 65.87 66.31 68.22 69.24 67.88 67.77 67.14 65.65 65.90 66.55 67.25 68.08 68.54 68.72 69.17 68.58 67.97 68.74 67.86 68.20 68.62 68.04 66.76 67.50 67.46 65.50 62.53 62.51 64.79 68.35 69.55 70.74 71.43 71.68
64.26 64.63 64.29 64.71 65.37 65.60 65.37 66.62 65.74 65.31 65.91 68.87 68.31 67.01 66.15 64.84 65.45 65.40 65.85 66.38 67.30 67.38 68.64 68.42 68.49 68.04 67.81 68.24 68.08 68.85 68.58 67.79 66.67 67.25 67.43 66.63 65.67 63.88 64.40 67.12 69.40 71.06 70.75
63.66 63.75 62.76 64.39 66.62 65.61 65.11 63.68 64.50 65.27 66.20 69.27 67.75 66.36 65.27 64.91 65.02 64.93 64.91 65.18 66.15 66.58 67.05 68.24 67.86 67.59 67.70 68.56 68.54 68.31 68.20 68.18 67.28 67.03 66.75 66.87 66.83 65.92 64.17 62.90 65.38 68.55 70.42
62.09 63.53 63.51 63.53 64.25 66.11 66.25 66.39 65.74 66.96 68.63 68.44 66.90 65.47 64.74 63.31 63.90 64.38 64.51 65.17 65.49 66.21 66.47 67.36 67.68 68.04 67.84 67.91 68.31 69.03 68.42 68.04 67.86 67.39 67.59 66.87 66.38 65.95 65.37 64.01 64.05 64.63 66.75
61.10 62.21 62.00 62.40 63.48 64.63 65.18 65.42 66.67 67.37 68.35 66.63 65.78 65.25 64.65 64.84 64.43 64.49 64.73 64.26 64.29 65.83 66.33 66.87 67.30 67.50 68.04 68.29 68.31 68.27 68.40 67.93 67.14 66.74 66.85 66.80 67.52 67.79 66.65 65.89 64.37 64.59 66.45
64.89 63.61 62.74 62.80 63.90 65.73 66.90 67.50 67.41 67.05 65.71 65.65 65.71 65.16 65.44 64.80 64.63 64.73 64.90 64.92 64.60 65.28 66.74 67.48 67.61 67.79 68.15 68.24 68.22 68.47 68.27 67.86 67.57 66.76 66.51 66.35 67.16 68.13 67.70 66.92 65.46 63.55 63.92
64.55 64.00 64.01 64.52 65.48 65.58 66.29 67.93 67.01 65.87 65.47 65.60 65.40 64.96 64.75 64.62 64.52 64.99 65.59 65.54 66.13 66.80 67.01 67.16 67.32 67.59 68.06 68.40 68.22 68.22 67.77 67.84 67.63 67.59 66.53 66.73 67.43 68.02 68.63 68.13 67.57 65.84 62.66
63.73 64.25 65.16 66.96 65.60 66.13 67.26 67.43 66.61 65.56 65.65 65.76 65.29 64.87 64.52 64.94 64.86 65.22 64.90 65.05 66.01 66.44 66.94 67.01 67.34 67.57 67.88 68.11 68.02 67.97 68.13 67.50 67.00 67.18 66.46 66.76 67.64 68.13 68.33 67.97 67.55 67.21 65.63
63.36 64.65 65.58 67.23 67.20 67.72 67.05 66.38 65.67 65.47 65.27 65.85 65.47 64.94 64.67 64.72 65.11 65.11 64.99 65.28 66.11 66.31 65.58 65.29 65.73 66.29 66.90 67.50 67.23 66.56 66.63 66.09 66.40 66.40 66.58 66.54 67.30 67.43 67.34 67.16 65.78 65.83 65.24
63.12 64.78 64.63 65.34 67.03 66.63 66.18 65.98 65.80 65.16 65.74 66.27 65.07 64.69 65.25 64.72 64.51 64.75 64.73 65.53 65.45 65.39 64.55 64.87 64.21 64.62 65.40 66.25 66.13 66.32 66.65 65.89 65.64 66.24 66.42 66.33 67.07 66.19 65.96 65.71 65.12 65.10 65.44
63.36 63.97 64.25 64.23 65.16 65.38 65.69 65.87 65.94 65.54 66.05 66.34 64.83 64.31 65.09 65.07 64.55 64.70 64.85 64.85 64.14 63.69 63.63 63.85 63.65 63.22 62.93 63.10 63.19 63.39 62.76 63.15 63.61 65.26 64.64 65.46 65.51 64.37 64.60 64.23 63.35 63.87 64.80
63.15 63.97 63.67 64.07 63.96 64.58 64.08 64.72 65.34 65.79 65.74 66.14 65.29 63.49 64.18 64.66 64.97 64.67 64.57 63.90 63.26 62.72 62.68 62.76 63.00 62.99 62.91 62.72 62.01 61.52 60.83 60.70 60.54 61.06 61.25 61.83 61.91 61.64 62.20 62.56 62.56 63.49 63.24
62.55 62.67 62.49 62.37 63.09 63.67 63.70 63.79 63.97 64.74 65.76 66.00 65.92 65.31 64.41 65.24 64.84 64.10 63.94 62.03 61.09 60.66 60.89 61.40 61.62 61.92 61.99 62.09 61.60 60.92 59.96 59.47 58.50 58.50 59.90 61.20 62.19 61.96 61.75 61.07 60.59 61.07 61.68
62.37 63.52 63.34 63.31 62.63 62.14 61.99 63.19 63.47 64.15 65.09 66.27 65.45 65.69 65.02 65.26 63.89 63.40 62.20 59.75 58.60 58.65 60.51 60.70 60.68 60.22 59.98 57.79 58.50 59.00 58.48 58.32 57.77 56.63 56.93 56.61 56.47 56.41 56.25 56.56 57.63 57.89 58.94
62.36 61.75 61.35 59.89 59.22 59.36 60.63 61.42 62.38 63.03 64.16 65.02 66.85 65.47 65.82 64.45 63.16 61.22 59.31 57.01 55.49 55.89 56.69 57.78 59.38 59.08 58.05 55.79 56.65 57.81 57.19 56.73 56.97 57.21 57.39 55.45 53.51 52.79 51.85 52.77 53.32 53.76 54.81
60.25 59.73 58.29 56.81 56.11 56.25 57.03 58.40 60.09 60.14 61.77 62.47 64.90 65.62 65.12 63.85 62.14 59.33 56.13 54.20 52.96 52.81 53.16 54.86 56.31 54.72 53.28 52.63 52.15 52.52 52.33 52.03 53.01 54.58 52.33 51.22 52.33 52.36 51.29 50.41 49.45 49.99 50.80
58.17 57.25 56.67 55.87 54.25 53.81 55.01 56.68 56.58 58.05 58.63 58.73 60.68 64.90 64.27 61.77 59.45 56.09 53.43 51.76 51.29 50.95 51.34 53.14 53.62 52.41 51.50 50.32 49.84 51.13 51.00 50.03 49.97 51.77 52.31 52.41 52.87 52.36 51.85 52.09 51.06 50.69 50.35
55.95 54.59 54.19 54.75 52.31 52.70 54.68 54.47 54.13 54.40 54.27 55.55 56.03 62.68 63.33 60.85 56.61 53.93 51.82 50.75 50.65 50.31 50.81 51.19 51.09 50.79 49.95 48.44 48.38 50.54 50.52 49.44 49.45 49.96 50.45 50.69 50.03 48.42 48.77 51.75 51.35 50.07 50.16
54.16 53.47 52.43 52.00 52.21 52.66 53.28 52.33 52.22 51.65 52.63 53.17 53.85 54.50 56.17 55.35 54.11 51.63 51.43 50.62 49.86 49.77 49.51 49.53 49.38 49.48 49.36 48.43 47.27 48.45 50.53 49.35 48.67 48.79 48.98 48.63 47.35 45.43 45.34 47.08 51.39 50.78 51.77
53.25 53.07 51.91 51.51 51.70 52.21 51.97 51.08 50.45 51.77 51.86 51.70 51.44 51.49 51.71 52.16 51.39 50.30 50.87 50.76 50.65 49.73 48.96 47.88 48.10 49.10 49.05 48.27 47.50 47.73 48.89 50.52 49.09 47.43 47.26 46.78 44.02 43.26 43.87 44.45 44.18 45.10 47.27
52.58 52.21 51.51 50.87 50.95 51.32 51.49 50.57 51.32 51.72 51.16 50.34 49.72 49.91 50.23 50.25 50.68 50.14 49.62 49.31 49.58 48.97 48.10 47.70 47.29 47.99 49.26 49.04 47.21 47.25 48.22 48.86 47.91 48.42 47.57 45.83 43.17 42.86 43.58 44.37 44.08 43.92 44.41
51.74 51.61 51.08 50.37 50.29 51.19 50.91 50.32 49.98 49.83 48.81 47.65 47.92 49.02 48.68 48.17 48.73 49.31 49.26 48.61 48.14 47.92 47.52 47.16 47.23 47.68 47.65 47.92 48.59 48.82 49.67 48.33 48.27 47.67 46.35 45.68 44.82 43.60 43.45 43.98 43.74 44.87 43.44
52.18 51.60 50.83 50.53 50.21 49.70 48.69 49.00 49.09 49.03 47.71 47.26 46.84 46.30 45.79 45.01 43.52 43.19 45.37 45.89 45.73 47.47 46.89 46.89 47.42 46.39 44.79 44.56 44.00 44.76 44.56 45.94 44.76 44.12 43.88 43.94 43.32 42.31 42.18 42.02 42.37 42.37 42.29
51.37 51.22 51.09 50.77 50.05 48.43 46.69 46.36 47.44 47.62 46.12 44.48 44.13 44.77 43.78 42.61 41.85 40.95 39.80 41.75 41.66 40.68 39.43 39.96 43.34 42.16 41.11 38.94 38.76 38.65 39.37 39.71 39.75 41.86 41.94 41.28 42.06 41.10 40.72 40.93 40.47 40.43 41.13

GFSMW_sfc_wetblb_015.txt.gz
Wetbulb
69.50 70.70 71.61 70.42 68.66 69.03 68.53 69.93 69.96 70.20 70.91 71.35 72.84 73.41 72.70 74.26 73.79 74.44 74.26 73.82 74.16 74.35 74.29 73.40 73.25 72.59 71.43 72.96 73.49 73.54 72.25 71.66 72.41 70.52 70.49 71.93 72.72 72.74 73.53 74.19 73.20 74.04 74.77
68.53 68.34 70.17 70.04 69.46 69.22 70.79 68.29 70.36 69.69 68.69 71.79 71.92 73.08 73.26 73.11 73.09 73.53 73.07 72.85 72.40 72.37 72.26 71.76 72.95 73.38 72.23 71.63 72.97 72.53 71.46 71.06 72.16 68.74 69.76 67.30 69.74 71.35 72.55 73.12 73.79 74.23 74.57
66.90 67.48 67.97 68.17 70.22 68.21 69.84 70.28 70.53 69.56 68.34 68.78 73.12 72.32 73.11 73.14 72.28 72.32 71.85 71.85 71.65 71.96 72.35 71.10 71.17 73.10 70.07 68.95 69.73 72.59 71.04 69.67 71.02 71.82 70.29 67.17 64.05 70.01 71.58 73.00 73.23 74.03 74.32
67.00 67.97 66.81 66.61 67.63 67.98 68.96 69.34 69.74 68.53 69.13 70.76 72.16 71.23 71.34 69.87 70.73 69.50 69.82 70.52 70.89 70.83 71.54 72.28 71.41 71.17 70.84 68.20 68.67 72.23 72.88 72.67 69.21 70.40 70.73 70.38 68.86 68.25 66.91 70.81 72.39 73.45 73.82
66.35 66.83 67.02 67.88 68.73 68.97 69.53 68.40 68.05 68.23 69.05 70.99 72.98 71.88 70.40 70.08 69.38 69.72 70.27 71.01 71.19 71.02 70.98 71.28 71.83 71.87 71.26 70.15 68.20 69.07 72.62 71.96 71.82 69.96 69.61 70.20 71.11 69.30 65.58 65.16 68.38 71.19 72.65
65.99 67.29 67.16 67.64 68.75 68.31 68.57 67.38 67.85 68.81 71.66 72.62 71.22 69.96 68.61 69.26 68.82 69.06 68.72 69.23 69.63 70.60 71.37 71.15 71.54 71.90 71.76 71.70 71.57 71.42 72.11 72.02 71.66 71.50 70.46 69.30 69.11 70.18 69.27 67.56 68.62 67.88 70.36
65.71 66.37 66.23 65.76 66.88 67.45 67.84 68.33 69.45 69.73 72.33 71.26 70.09 69.52 69.90 69.86 69.10 69.20 68.72 69.18 68.75 69.30 70.31 70.94 71.10 71.01 72.03 71.85 72.08 72.03 72.04 71.81 71.12 71.39 70.40 70.59 69.45 72.48 71.59 70.92 66.44 66.41 69.27
65.38 65.81 66.50 66.91 66.88 66.48 67.60 67.77 68.73 70.11 72.13 70.92 70.65 70.16 70.40 69.40 69.70 69.72 69.28 68.89 69.17 69.94 71.44 71.14 71.21 70.95 70.55 70.40 70.42 70.99 72.45 71.84 71.52 71.60 71.41 70.49 70.72 69.61 68.91 70.49 67.79 68.20 67.49
66.84 66.62 66.46 66.71 66.92 67.40 68.82 70.21 70.82 71.74 71.63 70.49 70.78 70.06 69.80 69.50 69.40 69.99 69.98 69.47 70.33 70.00 71.02 70.95 71.00 71.80 71.44 71.46 71.33 70.92 70.93 71.46 71.69 71.36 71.28 70.45 69.89 68.09 69.51 69.40 69.86 68.47 63.49
68.06 67.60 67.70 67.52 67.75 68.80 70.03 71.77 72.20 71.93 71.10 70.70 70.59 69.34 69.50 69.99 70.00 70.21 69.80 69.91 69.79 68.44 70.00 69.88 70.60 70.58 71.10 71.51 70.98 70.50 70.26 69.90 69.37 69.02 69.77 70.31 70.39 70.09 69.33 69.19 69.69 69.28 69.81
67.67 67.97 68.50 69.36 68.04 69.80 70.15 70.91 71.54 70.94 70.53 70.67 70.26 69.20 69.60 69.71 69.80 69.40 69.72 69.66 69.58 69.72 69.11 67.80 67.34 68.46 69.99 70.69 69.74 68.75 68.38 68.02 68.35 68.61 68.16 69.17 69.98 69.82 69.92 70.16 69.89 69.04 68.68
67.45 68.42 69.42 68.92 68.95 69.58 70.61 70.70 70.93 70.53 71.06 70.84 70.45 69.17 70.10 69.82 69.25 68.99 69.23 69.74 68.72 69.20 69.18 66.83 65.87 66.03 67.32 68.77 69.29 67.78 67.78 66.97 66.82 67.36 67.18 67.59 69.21 69.33 70.19 69.80 68.67 66.01 65.74
66.90 67.97 68.45 66.88 68.46 70.65 70.66 70.40 70.33 69.91 70.56 70.88 70.61 69.16 69.61 70.22 69.33 68.99 68.74 68.91 68.63 68.31 68.08 67.97 66.92 66.37 66.01 65.39 64.87 64.46 63.64 62.88 64.20 66.43 67.08 66.79 67.21 66.35 66.19 65.90 65.71 65.62 65.98
66.92 67.99 66.96 67.07 69.11 70.49 70.46 70.12 70.26 70.67 70.54 70.79 70.45 69.64 69.03 70.10 70.13 68.95 68.33 68.11 68.20 67.62 67.37 67.38 67.16 66.73 66.52 66.58 65.65 64.63 63.24 61.81 61.58 61.75 61.79 61.93 61.97 62.44 63.20 63.22 62.70 64.01 64.19
66.76 65.48 65.12 66.69 68.81 69.21 69.41 69.25 70.28 70.53 70.50 70.32 69.91 70.25 69.50 69.74 69.13 67.11 67.14 67.22 67.04 66.68 66.97 66.81 66.50 66.14 64.75 63.24 64.08 64.10 63.64 60.60 59.13 58.69 59.43 60.15 60.72 60.76 61.19 60.67 59.85 61.64 62.72
66.06 66.57 66.83 67.12 67.99 68.26 68.35 68.44 68.87 69.55 69.95 69.79 69.84 70.85 70.01 69.45 68.32 65.12 66.52 66.20 65.72 65.58 65.76 65.03 64.66 64.05 62.25 57.49 59.35 62.90 62.15 61.14 60.56 58.75 57.92 56.07 56.11 56.72 56.81 57.28 57.68 58.63 59.95
65.61 65.94 65.67 64.96 64.88 66.01 65.71 65.25 65.71 67.48 68.88 69.18 70.01 70.38 70.06 69.15 67.17 64.68 65.60 64.95 63.69 63.05 62.50 63.16 63.23 61.85 60.98 54.90 55.89 59.00 61.69 60.12 59.29 59.11 57.60 55.10 53.82 53.83 53.80 53.89 54.42 54.91 55.95
63.86 63.02 61.54 61.66 62.15 62.55 63.37 64.10 64.53 65.72 64.83 64.90 67.97 70.26 69.38 68.27 64.99 65.19 64.38 63.14 63.50 61.67 59.78 59.55 59.41 59.92 56.56 52.23 53.08 56.45 61.09 58.05 57.01 56.80 57.91 57.85 56.92 55.74 56.04 55.54 54.65 54.17 55.01
62.49 61.06 61.24 60.30 58.89 60.21 60.16 62.11 62.75 63.31 62.30 61.84 62.68 65.45 67.74 65.83 64.32 63.64 61.99 61.56 61.35 61.31 59.38 57.99 57.90 58.37 56.60 50.34 51.43 57.26 58.65 56.40 56.56 56.85 57.69 57.34 56.18 52.07 53.35 56.35 54.89 54.06 52.59
58.57 58.59 58.89 58.54 57.68 57.38 58.50 58.92 58.71 59.69 58.13 58.55 58.49 59.78 65.83 63.92 62.69 61.29 59.76 60.03 60.74 59.88 59.05 55.42 54.95 52.83 54.64 48.35 49.45 55.48 57.14 55.95 55.47 56.28 54.99 50.12 53.04 48.74 50.01 57.24 56.29 53.82 53.30
57.30 57.94 57.87 57.04 56.50 56.55 57.13 55.99 55.10 54.30 54.84 55.40 55.83 56.13 57.11 57.89 57.49 57.20 58.36 57.56 57.78 56.85 53.72 53.08 52.99 52.59 52.21 50.89 47.76 49.60 54.57 53.53 52.86 52.68 51.31 50.41 46.50 45.20 46.09 49.47 53.71 51.78 51.09
56.09 57.05 55.34 54.98 55.61 56.12 56.15 54.39 53.32 53.60 54.06 54.24 53.83 53.39 52.84 52.84 52.72 52.87 53.50 53.70 55.83 55.46 53.39 51.60 49.40 51.75 50.91 49.23 47.64 47.79 49.27 51.35 49.26 48.25 47.79 46.54 43.70 43.06 43.67 45.71 44.80 46.18 50.23
55.36 56.19 54.40 54.43 54.39 54.86 55.36 54.04 52.95 53.62 52.90 52.21 51.70 51.88 51.70 51.66 51.79 51.43 51.55 50.74 52.00 50.94 50.26 48.49 48.69 48.92 50.33 50.67 47.10 46.96 47.85 48.97 48.82 48.63 45.90 44.92 43.07 43.66 45.56 45.20 45.42 47.54 50.51
55.23 56.23 55.92 54.47 53.07 54.11 53.72 53.19 52.64 51.95 51.49 50.45 50.58 50.98 50.51 50.37 50.62 50.58 51.42 51.22 49.96 48.96 48.22 48.57 48.73 50.03 50.43 50.79 51.22 50.83 49.21 49.25 49.45 48.87 49.40 46.76 46.79 45.79 47.95 49.28 49.03 49.25 48.96
56.45 56.16 54.73 53.61 52.68 52.82 52.38 52.66 52.12 52.33 50.48 50.16 49.57 48.98 48.64 47.86 45.85 44.19 46.41 48.22 48.40 49.47 49.09 49.27 50.62 48.79 47.90 48.11 46.14 46.81 46.86 48.14 46.97 49.61 49.99 49.09 48.51 47.99 47.99 48.06 48.25 48.49 48.59
56.10 54.29 53.55 53.16 51.93 51.85 52.29 52.46 51.81 51.87 52.59 51.58 50.40 49.61 47.55 45.79 44.98 44.34 42.09 41.97 41.92 41.00 40.33 41.44 46.14 45.42 42.65 39.76 39.20 39.12 39.33 39.73 40.94 48.79 48.50 47.75 47.31 46.44 46.68 46.82 46.65 47.44 46.67

GFSMW_sfc_wetblb_021.txt.gz
Wetbulb
74.14 75.02 75.44 76.09 77.04 77.09 77.22 76.40 75.68 74.53 73.35 73.47 74.13 75.48 73.60 75.42 75.87 75.89 77.63 76.77 76.86 76.60 77.40 77.19 77.04 76.83 75.76 75.30 76.10 74.19 75.38 72.44 73.42 73.18 71.43 71.38 73.18 74.23 74.59 74.84 74.29 75.21 75.41
73.54 74.39 75.60 76.20 75.66 75.40 75.59 75.51 74.56 72.44 72.07 74.25 73.89 76.88 75.17 76.01 76.55 77.62 76.89 76.97 75.92 75.99 76.04 76.39 75.55 76.25 75.51 75.79 75.66 75.78 74.73 73.70 75.50 70.29 69.29 66.55 67.83 71.37 73.75 74.00 75.77 75.00 76.89
72.69 73.74 74.58 74.50 74.65 74.55 74.33 74.85 73.23 72.82 71.14 72.84 74.60 77.99 77.31 76.45 76.37 75.38 73.92 74.57 74.84 74.58 74.69 74.67 75.88 75.59 76.43 75.28 74.28 74.58 72.92 71.54 73.97 73.40 69.39 65.55 63.73 66.93 73.28 74.38 73.64 75.42 76.99
73.29 74.01 73.21 73.38 73.35 74.24 75.10 75.09 74.53 73.46 72.41 72.42 71.66 75.11 74.77 72.62 73.01 72.65 73.62 73.92 74.53 73.36 73.80 74.10 73.69 75.06 76.23 74.41 74.64 75.06 73.19 73.08 71.35 73.86 72.16 73.64 71.58 67.49 66.50 73.81 74.24 76.36 75.68
72.23 71.83 72.22 73.24 74.04 72.74 73.02 74.02 74.08 73.47 74.41 74.91 76.02 75.91 75.05 72.72 73.36 72.35 73.45 75.65 75.84 74.23 73.36 73.69 73.23 73.69 74.79 75.18 74.14 74.44 74.43 74.03 73.14 71.71 73.05 72.53 69.92 71.00 68.17 67.19 69.38 72.87 73.36
71.05 71.45 72.72 73.24 72.06 73.13 72.45 72.83 73.61 73.84 74.55 74.71 75.41 74.70 72.32 71.92 71.51 72.21 71.43 71.14 71.71 72.73 73.61 73.59 73.75 74.36 74.09 73.69 75.14 74.71 73.77 73.89 71.44 72.13 72.50 71.75 69.93 68.30 68.31 69.43 69.38 67.55 70.00
70.42 71.29 71.50 71.15 71.74 71.81 71.32 71.99 72.81 72.90 74.74 74.92 74.57 73.78 73.11 72.34 72.42 72.62 71.31 72.33 70.90 71.62 73.92 73.67 73.56 73.06 73.76 73.65 74.46 74.11 73.34 73.26 70.90 71.40 71.26 73.37 70.41 74.94 71.93 71.83 67.37 66.50 70.32
70.15 70.59 71.08 71.06 71.32 71.31 72.13 72.99 73.92 74.43 74.33 74.30 74.08 74.10 73.09 72.75 72.15 72.78 71.58 71.50 71.50 73.10 73.62 72.65 73.03 73.43 72.65 72.99 73.69 72.17 72.13 73.50 71.81 71.31 72.62 72.55 71.89 71.41 70.04 71.98 71.71 68.32 66.75
69.12 70.36 70.91 70.63 71.45 71.65 72.23 72.85 73.79 74.52 74.54 74.32 73.85 73.78 73.76 73.17 72.59 72.87 73.14 71.37 72.81 72.42 72.90 72.76 72.68 73.23 72.77 72.96 73.57 73.70 72.90 73.55 73.37 72.46 71.42 72.96 73.11 71.77 71.58 71.98 71.94 70.73 63.88
69.35 70.36 71.07 71.26 71.37 72.22 72.76 73.63 74.21 74.39 74.35 73.91 73.45 72.84 72.80 72.89 73.18 72.87 72.61 71.98 72.37 72.20 71.95 71.38 72.11 71.88 72.92 73.31 73.64 74.03 73.48 72.85 73.27 73.07 72.32 73.12 74.95 74.46 75.52 72.62 71.11 72.38 68.86
69.82 70.49 71.14 71.62 71.72 72.90 73.18 73.52 74.21 73.93 73.02 73.62 72.86 72.63 72.46 72.46 73.80 72.40 72.29 71.57 71.79 71.51 70.85 70.55 70.53 70.82 71.75 72.57 73.17 71.91 71.55 71.29 71.04 71.07 70.44 70.65 72.30 73.19 75.55 75.98 75.00 72.26 71.89
70.60 71.29 71.76 71.54 71.51 72.10 72.89 73.10 73.17 72.71 72.93 73.65 73.16 72.65 72.74 72.46 71.84 71.88 71.72 71.45 70.79 71.73 70.77 70.45 70.15 70.16 69.43 70.69 70.33 68.91 69.02 68.84 68.44 68.81 69.33 69.30 70.55 71.46 72.36 72.39 71.64 71.23 71.39
71.01 71.59 71.74 70.93 71.12 72.02 71.66 71.87 71.87 72.22 72.75 73.58 73.09 72.59 72.39 72.88 71.66 71.48 71.05 71.26 70.47 70.25 70.05 69.82 69.11 69.50 69.52 68.91 68.71 68.07 66.65 66.31 65.40 65.66 65.37 66.46 67.99 66.82 66.77 67.34 67.47 68.00 68.59
70.99 71.35 71.46 71.43 71.75 71.22 70.87 71.94 71.83 72.19 72.91 72.95 72.55 72.43 72.40 72.85 72.27 71.55 71.03 70.79 70.36 70.28 69.49 69.55 69.10 69.20 68.59 68.23 67.93 67.33 66.19 65.09 63.96 63.55 63.96 64.45 64.26 64.99 65.46 64.99 65.31 66.40 65.26
70.12 71.30 71.04 70.41 70.04 70.33 71.99 72.62 72.63 72.81 73.19 72.73 72.38 72.52 73.02 72.82 72.57 71.59 70.95 70.18 69.74 69.43 69.11 68.70 68.79 67.89 67.39 65.83 67.36 66.22 65.43 64.75 63.56 62.71 60.76 60.26 60.73 60.39 61.25 63.82 63.98 65.33 64.44
69.90 71.18 70.09 68.96 69.53 71.54 72.28 72.34 72.92 73.21 73.29 72.23 71.77 73.40 72.98 72.59 72.11 71.39 69.65 69.50 68.27 68.40 68.56 67.84 66.97 66.74 65.12 58.30 60.77 65.23 65.93 64.45 64.10 63.79 63.99 63.80 62.30 59.17 58.55 59.26 59.47 62.59 64.10
70.11 70.69 69.33 69.66 71.32 71.71 72.71 72.49 73.05 74.11 73.16 73.21 73.12 73.02 72.99 72.49 71.98 71.55 69.91 67.98 67.34 67.37 67.53 66.97 66.98 65.85 63.76 56.97 58.12 62.14 65.23 64.53 64.00 63.69 63.12 62.21 61.22 62.32 61.40 58.90 58.93 58.94 59.33
70.87 69.89 69.57 70.85 72.68 72.96 72.51 72.52 72.24 72.35 72.22 71.88 71.69 72.04 72.55 72.31 72.58 71.16 69.57 68.16 66.76 66.12 65.92 65.64 65.61 64.55 60.45 54.31 54.59 58.37 65.71 64.54 63.91 63.45 63.08 62.60 61.52 58.62 60.89 59.26 57.04 55.76 55.85
71.74 70.96 71.26 71.41 70.95 70.81 70.92 71.56 71.17 71.81 71.21 69.35 68.49 67.80 69.49 70.70 69.79 69.88 68.23 67.78 66.10 65.47 65.25 65.55 64.74 64.48 62.15 53.49 54.44 58.13 64.48 63.37 62.29 60.86 58.54 60.79 59.66 53.66 54.27 59.89 57.44 55.89 54.05
71.89 70.51 68.77 68.72 67.74 66.85 68.92 69.13 68.41 68.22 66.18 65.01 65.12 65.06 64.76 67.39 68.15 68.18 67.15 67.48 65.81 65.42 64.45 64.18 63.63 59.29 62.33 50.31 51.72 54.95 62.69 61.81 59.92 59.93 57.96 51.07 53.85 50.30 51.44 61.54 60.07 58.10 58.05
68.72 68.14 68.22 67.19 66.44 66.22 66.26 65.86 65.14 62.43 62.87 62.89 62.41 61.75 59.76 59.72 64.16 64.92 65.68 65.64 65.57 64.18 63.72 61.26 61.18 59.18 53.25 53.94 49.60 50.73 62.54 61.34 60.10 58.21 55.49 53.90 48.20 46.95 47.97 51.96 59.93 56.59 56.82
66.20 67.95 66.31 65.10 65.15 65.33 65.29 63.23 60.21 60.63 61.20 60.65 59.77 58.14 57.20 56.33 57.21 58.55 59.52 59.38 62.80 62.29 61.03 60.04 60.01 56.90 54.94 48.94 47.94 47.89 49.73 55.40 57.43 55.46 54.13 50.46 44.88 44.23 44.95 51.50 46.32 47.48 50.60
66.59 66.90 64.84 62.17 62.14 62.78 63.22 60.82 59.41 60.10 59.73 58.74 57.87 56.54 55.22 54.40 54.39 54.44 55.26 54.34 54.52 57.47 55.85 50.64 50.62 50.62 50.11 50.12 47.52 47.03 48.98 50.06 55.62 54.72 48.18 45.83 43.75 44.43 47.22 46.77 47.28 48.64 54.32
64.44 64.35 64.03 62.12 60.58 61.24 61.09 60.66 60.26 60.54 59.72 57.44 55.37 54.19 52.84 51.59 51.94 52.88 53.46 52.45 51.78 51.67 49.81 50.10 51.98 51.21 52.25 51.92 52.54 51.14 50.21 48.52 47.85 48.64 49.92 49.94 49.91 47.18 49.79 50.02 52.60 54.06 53.58
62.76 62.27 61.41 60.77 58.60 59.89 60.04 60.42 60.22 60.31 59.14 58.48 56.87 55.20 52.57 49.78 47.88 46.57 48.32 50.49 48.60 50.82 52.31 52.96 53.19 53.13 51.45 49.63 45.32 47.89 51.85 52.69 50.18 50.47 48.96 48.03 53.72 53.54 53.40 53.60 53.79 53.50 53.48
61.25 60.71 60.01 59.50 58.74 59.29 59.12 59.74 60.32 60.35 60.03 58.46 57.58 55.59 54.47 53.40 52.45 50.61 48.24 43.43 43.43 42.69 41.86 43.38 47.50 46.41 43.56 41.09 41.01 41.10 42.22 43.02 44.15 49.97 52.47 53.80 53.64 53.21 53.03 52.72 52.51 52.34 50.28

GFSMW_sfc_wetblb_024.txt.gz
Wetbulb
73.34 73.80 74.14 75.30 77.11 77.62 77.28 77.77 76.54 77.30 75.21 70.45 69.38 71.31 74.59 76.46 75.79 71.21 70.25 67.72 67.10 75.49 76.30 75.64 74.78 74.92 73.83 73.79 73.80 72.47 69.51 68.64 70.31 70.09 71.26 72.86 73.88 72.39 72.47 74.39 73.73 73.83 74.27
72.79 73.87 75.30 76.82 76.99 76.67 77.43 77.02 76.27 74.86 75.05 70.18 71.24 71.93 74.49 76.69 76.99 76.66 74.46 72.90 73.87 75.87 76.50 75.29 73.91 73.56 72.61 72.04 72.72 71.97 70.02 70.26 72.10 69.80 70.02 66.24 67.79 69.89 72.56 73.22 73.47 73.28 74.21
72.16 73.67 74.26 76.05 75.26 75.06 75.67 75.96 74.89 74.17 73.87 72.94 72.50 72.71 74.28 73.72 74.82 74.33 74.91 75.42 76.02 75.98 76.03 74.80 74.84 73.62 73.69 72.14 71.91 71.86 70.56 68.79 69.58 72.03 68.64 65.52 62.90 67.00 71.10 71.78 72.71 72.85 74.04
72.77 73.96 73.73 73.49 73.64 74.17 75.75 76.46 74.34 73.89 73.68 73.81 73.42 74.54 72.14 71.41 73.93 75.07 75.24 75.95 76.03 75.78 74.91 74.59 74.46 73.66 73.69 72.77 72.32 72.51 71.81 71.22 68.94 71.04 70.24 69.87 69.82 65.75 64.35 69.83 71.36 72.65 73.72
72.50 72.66 73.20 73.05 74.21 74.73 74.43 75.59 74.84 74.51 74.67 75.01 75.41 75.38 73.82 73.74 75.39 74.73 74.96 75.82 75.16 75.12 73.34 74.11 73.92 73.72 73.74 73.21 72.49 71.87 71.30 71.22 69.77 69.69 68.69 68.50 69.32 70.13 67.22 65.15 67.94 72.10 72.68
72.16 72.49 73.75 73.92 73.47 72.96 73.11 73.54 73.88 74.73 75.61 76.28 76.33 76.61 75.41 74.58 73.08 73.18 72.69 71.91 72.82 73.97 73.55 73.96 73.52 73.80 73.20 73.00 72.44 72.71 72.30 70.27 70.09 70.86 69.70 68.16 66.84 67.21 67.01 66.30 67.14 66.80 69.28
70.49 71.64 71.62 72.45 72.35 72.02 71.97 72.99 73.36 73.66 74.98 75.49 75.67 75.32 75.54 75.38 74.36 74.16 71.89 72.84 71.22 71.67 72.75 73.47 73.19 72.68 73.47 73.35 73.50 72.49 71.82 70.60 69.98 70.52 70.27 68.74 68.82 69.23 68.51 68.42 66.99 65.86 68.68
70.36 70.59 70.91 71.49 71.56 71.11 71.73 72.29 73.10 73.49 75.38 75.41 75.16 76.06 76.51 74.43 72.78 73.67 72.61 72.46 71.81 72.26 73.07 72.99 72.95 72.68 73.05 73.74 74.27 73.82 73.90 73.52 72.21 71.39 71.31 70.40 70.19 71.00 69.58 68.09 66.57 65.43 66.40
69.69 70.21 70.86 70.86 71.64 70.94 72.06 72.97 74.20 74.98 75.28 73.90 75.25 75.46 75.93 75.33 73.97 74.88 73.91 71.88 72.92 71.64 72.16 71.74 72.20 72.22 72.93 73.32 73.62 72.08 72.14 73.07 71.86 72.06 71.73 71.25 70.53 70.96 70.34 70.61 69.96 67.62 63.67
69.02 70.06 70.22 70.83 71.37 71.74 72.73 73.59 74.53 74.53 74.04 74.45 74.49 73.94 74.67 74.62 73.11 71.89 72.41 71.38 72.02 72.10 71.58 70.48 70.99 71.50 71.92 72.71 72.90 71.51 70.50 69.65 69.75 70.79 71.17 69.32 69.66 70.89 71.11 70.49 70.10 70.03 67.49
68.52 70.51 70.25 70.80 70.95 71.39 71.85 72.92 73.38 74.15 73.79 74.12 74.21 74.00 74.32 73.12 73.80 71.53 72.01 71.34 71.89 71.44 70.44 70.03 69.74 69.30 69.68 71.17 71.10 70.12 70.59 70.09 70.15 69.99 69.78 69.84 70.62 70.45 70.37 71.47 70.52 69.04 68.31
69.46 70.36 70.57 70.79 70.84 71.52 71.92 71.64 73.51 72.96 73.18 74.37 74.01 74.37 74.15 73.18 72.47 71.54 72.03 71.93 70.68 70.81 69.98 69.54 70.02 70.17 69.38 68.74 68.48 67.85 67.92 67.42 67.10 66.66 68.13 68.02 69.38 68.99 69.56 70.10 69.53 69.20 68.93
70.81 70.99 71.32 71.14 71.14 71.79 71.27 70.17 72.08 72.55 73.01 73.70 73.54 73.62 73.37 72.74 72.63 71.29 71.93 71.51 70.10 69.96 69.53 69.13 69.38 68.24 67.63 67.43 67.38 66.88 65.23 65.04 64.82 64.90 64.72 64.81 65.77 64.94 65.77 66.73 67.22 67.54 67.71
71.07 71.72 71.52 71.74 72.69 72.07 72.01 71.35 71.76 72.13 72.83 73.40 73.05 73.32 72.58 73.04 72.32 72.52 71.56 71.21 70.80 69.47 69.68 68.98 68.71 68.68 67.96 66.32 66.22 65.90 65.01 64.22 63.27 62.88 62.59 62.84 63.36 64.47 65.14 65.52 65.47 65.62 65.01
70.93 71.43 71.29 71.89 70.91 71.76 71.99 73.11 73.06 73.10 73.46 73.95 72.97 73.76 71.61 72.08 72.55 71.47 71.17 70.78 69.99 68.34 69.18 69.13 68.14 67.53 65.82 62.95 65.04 64.97 64.39 63.78 62.73 62.46 61.94 60.89 61.08 61.25 62.52 63.75 64.16 64.80 63.87
70.68 71.48 71.70 70.41 70.26 70.54 71.98 73.27 73.50 73.68 74.26 73.52 72.55 74.00 72.03 72.43 71.81 71.22 70.06 70.12 68.25 67.92 69.16 68.12 66.66 64.88 62.68 58.49 59.73 64.39 63.99 63.62 63.12 61.96 63.03 62.33 61.07 59.38 59.73 60.30 60.45 62.18 63.90
71.04 71.44 70.12 69.77 71.08 71.65 74.40 73.42 74.30 74.89 74.06 72.99 72.75 71.93 72.98 72.28 71.01 70.88 68.30 68.62 67.54 67.24 67.87 67.09 66.02 63.82 61.70 56.48 57.60 59.60 64.39 63.60 63.68 63.64 62.83 61.59 60.39 61.43 60.54 59.18 58.82 58.00 59.90
71.44 71.12 70.00 70.73 72.58 72.82 72.98 73.69 73.13 73.43 72.49 71.05 70.57 70.70 70.53 71.63 71.84 70.71 69.20 68.61 67.08 65.37 65.09 65.83 65.45 62.51 57.72 55.73 54.45 56.28 63.76 62.81 61.24 60.58 62.33 61.30 58.83 56.44 59.01 55.69 52.64 51.28 52.17
72.77 70.53 71.74 72.44 71.51 72.23 72.53 72.67 72.28 72.59 69.38 67.90 67.82 67.07 65.92 67.33 71.28 67.71 67.06 67.57 66.46 65.92 65.89 65.70 65.12 63.09 58.81 52.93 52.31 58.31 63.27 61.43 60.24 58.31 55.52 60.04 58.25 53.91 54.14 57.85 55.48 53.61 51.19
72.03 71.62 71.68 69.89 69.86 69.74 71.34 71.08 68.60 66.47 64.92 64.23 62.89 63.31 62.85 62.53 67.96 67.95 66.71 66.79 66.56 64.48 64.48 63.17 61.94 58.31 58.00 50.75 50.02 53.74 63.93 61.11 58.34 58.52 56.45 51.93 51.33 50.69 51.18 61.88 60.30 57.87 58.30
68.82 69.76 68.23 67.10 67.44 67.96 69.42 66.73 64.06 61.72 62.19 62.05 61.37 60.64 59.35 59.00 61.59 64.45 64.87 65.63 64.29 63.96 62.22 61.79 60.42 57.70 53.14 53.38 49.02 50.33 58.53 61.49 59.26 56.45 54.77 53.66 48.38 46.58 47.11 51.59 55.55 53.59 55.43
67.61 67.02 65.75 64.80 65.81 67.18 66.06 62.22 60.02 61.26 61.24 59.71 58.14 57.06 56.42 56.48 57.50 58.58 58.59 59.83 62.24 60.80 59.74 58.82 55.63 52.99 52.30 48.83 47.87 47.93 49.80 56.09 56.49 55.00 53.79 51.64 45.49 44.71 45.53 50.42 46.33 47.78 49.79
66.73 64.93 62.97 62.14 62.74 64.68 63.68 59.72 59.99 60.41 59.38 58.00 56.51 55.50 54.81 54.56 54.37 54.87 55.17 54.91 54.79 54.43 53.28 52.14 52.17 50.20 51.54 51.42 47.37 46.18 48.43 51.47 54.98 51.04 47.43 46.31 44.31 44.29 47.63 47.25 48.02 48.58 52.13
63.98 63.55 62.59 61.33 60.12 61.55 60.81 60.40 60.43 60.29 58.47 56.27 55.28 53.85 52.50 51.82 52.15 53.04 52.78 52.72 52.70 51.85 50.62 50.77 50.67 51.04 52.13 52.80 51.92 50.63 48.87 48.83 48.64 49.47 50.01 49.67 50.19 48.67 51.08 49.50 53.21 53.56 51.88
62.64 62.96 61.78 60.39 59.32 60.56 60.58 60.49 60.40 60.36 58.53 57.39 56.09 54.77 53.79 52.41 49.94 47.92 49.20 51.31 50.19 51.52 52.33 52.43 52.70 52.16 51.84 49.82 45.63 46.63 52.81 53.61 50.44 51.48 52.02 48.01 47.19 48.63 53.70 53.68 53.60 53.82 53.89
62.50 61.91 61.65 60.36 59.94 60.20 59.43 60.47 61.46 61.44 60.06 58.60 57.37 56.41 55.38 54.55 53.65 51.70 49.09 44.31 44.14 42.96 42.49 44.05 47.96 46.71 44.21 42.19 41.27 41.42 42.43 43.38 44.40 50.58 50.80 51.02 53.18 53.09 52.91 52.91 52.53 52.14 50.99

GFSMW_sfc_wetblb_027.txt.gz
Wetbulb
70.10 71.15 72.09 74.62 74.95 74.67 73.67 71.94 71.61 70.14 69.45 67.96 67.49 67.02 68.10 70.25 70.62 69.82 68.40 67.23 67.63 67.98 67.85 71.60 70.83 70.42 69.87 69.76 69.47 69.63 68.62 67.69 68.39 67.67 65.35 68.81 69.66 70.21 70.84 71.64 72.16 72.69 72.75
68.97 72.47 73.36 73.75 73.88 73.35 73.63 73.21 71.14 70.24 68.34 67.36 67.94 68.91 70.83 71.12 72.31 72.19 70.73 70.22 69.75 68.08 71.48 70.50 70.14 70.15 69.09 68.54 69.40 69.02 67.42 67.06 68.37 64.94 63.08 61.88 63.95 68.01 70.35 70.30 71.19 71.14 72.05
69.74 72.45 73.25 73.26 73.67 72.14 73.12 71.89 71.20 70.48 69.86 69.53 71.18 69.72 70.35 70.90 69.56 69.66 70.42 71.51 71.87 71.88 70.54 69.86 69.37 69.39 69.20 68.71 68.55 68.07 67.02 66.21 68.10 68.50 65.62 61.97 59.75 63.06 67.15 68.79 69.78 69.66 71.15
71.06 71.53 72.47 71.19 72.18 72.51 73.45 71.83 71.27 70.48 70.77 70.67 69.16 69.97 68.45 67.40 68.93 69.62 70.23 69.99 70.90 71.04 70.51 69.99 70.24 69.63 69.49 68.75 69.07 69.54 67.85 66.95 65.22 66.88 68.69 67.96 67.04 61.62 60.20 65.65 68.03 69.20 70.66
71.17 70.70 70.54 70.63 72.23 72.88 72.66 71.14 70.95 70.73 70.02 68.86 69.61 69.81 68.62 69.49 69.96 68.86 69.11 69.27 69.44 70.03 70.60 70.41 70.28 69.66 69.63 69.36 69.22 68.55 67.96 67.47 66.68 66.23 65.99 65.50 66.50 67.04 62.84 60.50 63.36 68.05 69.61
70.95 71.19 70.81 70.75 70.80 71.36 72.97 71.27 70.52 69.35 70.47 71.21 71.13 70.87 69.28 68.68 68.04 67.89 67.89 67.47 68.63 69.06 69.96 70.88 70.16 69.78 69.19 68.68 69.29 68.82 68.34 67.40 67.62 67.94 67.49 65.67 64.82 64.36 64.84 62.04 62.05 62.42 64.91
69.46 69.24 69.00 69.04 68.46 68.70 70.53 71.09 69.30 70.28 71.00 70.36 71.28 69.39 68.95 69.06 68.00 67.16 67.15 67.80 67.94 68.46 69.15 69.71 69.51 69.43 69.32 69.18 68.92 68.36 68.07 67.28 66.77 66.97 67.04 67.31 66.26 67.20 66.53 64.20 62.44 61.97 64.41
68.95 68.57 69.30 67.81 68.63 68.71 69.45 70.16 69.32 69.80 69.73 70.96 69.67 69.63 69.70 69.12 68.73 68.30 68.36 68.23 68.10 67.92 68.79 68.88 69.42 69.51 70.13 69.81 68.92 68.73 68.03 67.84 67.45 66.93 67.04 66.93 67.80 68.34 67.58 65.17 62.80 61.53 62.14
68.07 67.93 68.17 67.88 68.16 67.85 68.60 69.81 69.77 69.69 71.37 70.43 69.73 69.27 69.00 68.55 67.33 67.71 67.90 69.20 67.85 68.77 67.91 68.14 68.48 69.31 70.11 69.78 68.72 68.25 67.98 68.25 67.85 67.60 67.11 66.70 67.42 68.77 68.45 68.46 66.14 62.60 59.17
67.49 67.91 68.05 67.81 67.51 67.95 68.80 69.68 70.58 71.38 71.03 70.12 69.84 69.41 68.79 67.64 68.23 68.18 66.93 66.92 68.70 68.69 68.32 68.79 68.43 67.94 68.88 69.15 68.59 68.46 68.34 67.49 67.94 68.39 67.27 68.19 68.41 68.50 68.03 67.58 67.29 66.93 62.90
67.16 67.29 67.70 67.92 67.87 68.54 69.44 70.61 70.50 70.48 70.02 69.76 69.48 68.65 69.11 68.97 68.18 68.18 66.88 68.18 67.53 67.44 67.43 68.47 68.24 67.33 66.44 66.66 66.12 66.10 65.94 65.62 65.03 66.91 67.20 67.13 67.47 66.90 67.01 67.08 66.61 65.78 64.90
67.13 67.37 67.53 68.04 67.56 66.60 64.90 65.97 66.26 69.13 69.69 70.21 68.52 68.96 69.02 68.19 67.80 67.76 66.89 67.42 67.56 67.18 67.13 67.17 66.95 66.51 66.70 65.81 64.50 63.64 63.78 63.61 63.29 63.98 64.29 64.82 65.68 64.17 64.94 65.57 65.21 65.02 64.98
66.61 67.04 67.23 66.81 67.07 63.42 63.36 64.33 65.19 67.70 70.21 69.77 69.01 69.90 69.01 68.05 67.03 66.92 66.46 67.91 67.61 65.81 65.15 65.90 64.98 64.19 65.57 65.41 65.04 63.68 62.72 62.19 62.09 61.95 61.86 62.38 63.79 62.80 63.83 63.67 63.64 63.43 64.18
66.55 66.45 66.12 66.49 67.60 64.46 62.83 62.42 64.00 70.16 70.17 69.57 69.21 69.11 68.92 68.16 67.22 67.27 66.45 66.80 67.67 65.68 64.73 64.57 64.38 62.80 62.82 64.72 64.34 63.14 61.94 61.50 60.28 59.26 59.08 59.07 59.87 62.25 62.43 61.99 62.15 62.06 61.40
67.12 66.83 67.52 66.92 67.35 66.73 65.43 65.26 68.53 69.77 69.81 70.71 69.60 69.18 69.47 69.38 68.51 67.37 66.64 65.94 65.39 64.80 65.04 63.36 62.16 61.26 60.69 62.09 63.80 63.52 62.59 61.07 60.02 58.31 57.97 58.07 61.02 61.95 61.90 60.05 60.09 60.81 59.75
67.42 68.54 67.93 67.14 67.10 67.61 67.81 69.81 69.79 70.07 70.06 69.13 69.87 69.67 69.39 68.17 67.18 66.53 66.26 65.23 65.34 65.68 63.99 61.99 60.88 59.42 58.43 57.45 60.00 62.99 62.12 62.01 60.95 58.77 57.53 57.48 58.06 59.06 58.87 58.23 59.45 60.84 58.02
67.69 67.41 66.44 66.27 65.77 66.11 68.78 69.40 71.01 70.47 69.90 69.73 70.11 69.16 69.03 67.94 67.80 67.02 66.62 65.13 64.10 64.83 62.46 61.15 59.82 57.49 54.79 55.43 56.82 61.50 61.21 60.72 60.38 59.83 56.73 55.55 56.47 55.08 51.51 52.91 53.75 55.10 58.78
68.28 66.46 66.50 66.90 67.36 69.01 70.06 69.54 69.84 69.47 68.26 67.13 66.39 65.74 65.87 66.32 67.18 67.00 66.39 64.87 64.40 63.38 62.40 60.83 57.95 54.69 52.57 53.58 53.64 59.38 58.04 55.86 54.26 54.52 56.66 54.10 52.42 53.39 50.31 47.30 45.77 45.18 48.18
66.98 66.37 67.26 68.48 69.01 68.59 69.37 68.86 66.63 65.71 64.00 62.43 62.13 61.68 62.15 62.69 65.71 66.55 65.83 64.98 63.80 63.38 62.19 62.10 59.21 53.99 50.20 51.28 51.48 57.13 56.99 54.89 52.24 51.03 51.93 52.15 50.66 52.68 54.61 50.27 47.04 45.91 45.48
67.11 67.51 67.20 66.39 65.79 66.37 65.41 63.29 62.05 60.75 60.00 60.31 59.92 58.98 58.89 60.81 65.29 66.39 65.94 64.60 64.21 62.87 60.19 58.25 55.88 55.52 49.96 49.67 49.59 53.75 56.77 53.61 52.29 51.08 49.57 51.86 49.18 49.64 52.12 52.42 50.73 48.14 47.35
65.32 65.14 64.64 64.09 64.69 65.13 62.73 60.32 59.14 58.36 58.70 57.96 57.18 56.88 57.38 58.01 60.38 63.05 64.62 64.15 62.61 60.21 58.99 56.75 53.23 51.04 49.53 49.26 48.43 49.83 55.64 55.07 52.14 49.93 48.75 46.96 48.02 46.53 47.83 48.50 49.26 47.85 48.21
63.61 63.86 62.40 61.72 63.23 61.65 60.10 58.14 57.60 58.20 57.26 56.14 55.76 55.18 55.06 55.74 57.32 58.04 58.59 61.16 60.75 59.17 56.80 53.14 50.68 50.11 49.31 48.46 47.24 47.76 50.73 53.74 51.52 49.01 49.06 46.61 45.18 43.93 46.18 45.66 46.30 47.50 47.49
62.09 62.05 60.92 60.11 61.30 59.67 58.65 56.96 58.24 57.90 56.59 55.23 53.97 53.33 53.49 53.62 54.19 54.99 55.25 55.31 55.37 54.35 52.56 51.65 49.82 49.51 50.21 50.97 47.49 46.39 48.71 50.58 48.74 47.65 47.04 46.42 45.00 44.61 46.32 47.13 47.43 47.72 45.71
60.98 60.83 59.65 58.99 58.45 59.12 57.92 58.18 58.35 57.27 55.90 53.86 52.54 52.15 51.38 50.78 52.00 52.20 52.54 52.88 52.58 51.67 51.31 50.57 50.02 50.74 51.21 49.81 48.87 47.64 46.22 48.46 47.13 48.73 47.95 48.58 48.14 48.07 48.97 45.68 46.82 43.90 43.07
60.97 60.04 57.97 58.15 58.10 58.73 59.19 60.11 59.29 57.36 55.03 53.95 52.45 51.13 49.60 47.54 47.65 46.55 48.18 50.20 47.74 50.33 51.70 51.64 51.96 51.55 49.70 47.45 43.92 44.62 47.49 49.00 45.08 47.71 46.99 44.28 42.41 41.64 42.56 46.25 44.98 44.61 44.95
60.89 59.05 57.77 58.48 58.85 58.56 58.19 58.83 59.23 57.31 55.25 53.33 52.56 51.43 50.17 49.29 48.37 47.04 45.31 44.69 44.08 43.35 42.34 43.48 47.43 46.72 44.17 42.48 41.59 41.15 41.86 44.11 44.30 44.38 44.03 44.55 44.81 45.08 43.92 43.39 43.74 42.69 44.87

GFSMW_sfc_wetblb_033.txt.gz
Wetbulb
68.08 68.84 70.09 71.68 71.55 71.35 70.71 71.17 69.01 68.38 68.04 67.03 66.43 67.10 67.33 68.31 69.60 69.73 68.85 68.29 66.88 67.18 66.85 65.90 68.76 68.61 67.89 67.89 66.98 65.47 64.36 63.62 64.89 64.26 63.75 64.15 66.56 68.41 68.34 68.63 69.34 70.36 71.68
66.84 68.46 70.88 71.40 70.83 70.44 69.55 68.25 67.59 67.14 66.18 66.00 66.47 66.52 67.59 69.25 70.47 70.84 70.44 69.15 69.12 67.42 65.98 66.30 68.68 67.95 67.61 67.03 66.64 67.16 66.23 64.27 65.47 63.62 62.63 61.06 62.08 65.19 67.53 67.64 68.43 68.83 70.61
66.65 69.58 70.53 70.34 70.48 69.98 68.85 67.62 66.90 66.41 65.54 65.80 69.23 68.67 68.42 68.76 67.73 67.66 68.16 68.82 70.09 69.94 69.06 68.37 67.73 67.33 66.94 66.67 66.22 66.03 66.08 63.83 66.77 65.07 62.86 59.46 59.09 62.19 64.79 66.41 67.71 68.31 68.83
68.74 69.91 69.99 69.95 70.38 70.57 69.70 67.44 67.24 66.05 65.58 68.12 67.58 67.57 66.41 65.66 66.70 67.19 67.17 67.59 68.64 68.89 69.33 68.76 68.47 67.53 67.03 66.51 66.42 67.34 66.19 64.72 63.29 65.64 66.46 64.82 64.73 61.18 59.89 63.63 64.86 67.10 67.71
69.30 69.54 70.06 70.45 71.40 71.00 70.06 68.81 67.55 66.32 67.37 67.34 66.10 66.76 66.77 67.59 66.74 66.02 65.91 66.65 67.08 67.75 68.71 68.70 68.18 67.55 66.96 66.89 66.92 66.42 66.41 65.62 64.04 63.62 63.55 63.60 65.13 65.69 62.65 60.60 62.80 64.52 66.35
69.74 69.24 70.72 71.06 70.86 70.25 69.52 68.54 67.28 66.81 67.44 66.51 67.70 67.88 66.79 66.50 65.35 65.55 65.54 65.79 66.06 66.22 66.56 67.95 67.75 67.44 67.26 66.78 66.58 66.69 66.53 65.87 65.17 64.56 64.26 63.55 63.36 63.81 62.50 61.14 62.58 62.53 64.67
64.06 61.04 59.65 68.29 69.81 68.72 68.72 68.04 66.81 66.18 66.48 68.44 69.14 67.52 67.30 65.96 65.58 65.12 64.91 64.44 64.08 63.99 65.21 66.49 66.94 66.87 67.36 67.44 66.41 66.09 65.79 65.54 64.86 64.77 64.54 65.21 64.81 65.61 63.99 63.70 62.82 62.13 63.52
60.14 61.07 62.58 67.30 69.67 68.92 68.56 67.59 66.32 66.61 68.22 68.29 68.55 67.35 66.88 66.31 65.68 65.37 64.82 64.51 63.91 63.98 65.87 66.90 66.83 67.32 67.52 67.03 66.51 66.13 66.15 65.17 64.71 64.76 64.80 64.77 65.42 66.17 65.05 63.86 62.79 61.68 62.14
61.65 60.41 65.86 66.28 69.35 69.08 68.02 66.96 67.19 67.66 68.00 67.86 67.15 66.57 66.65 65.67 65.35 64.75 64.08 64.13 64.29 66.96 67.86 67.70 65.41 65.70 65.54 65.83 66.03 65.30 64.74 65.26 65.17 65.05 64.58 64.24 64.80 66.67 67.01 65.50 65.16 63.36 59.71
61.82 66.29 66.05 66.05 67.62 68.36 67.84 67.55 68.45 68.04 68.72 67.62 67.12 66.43 65.02 65.56 64.73 64.43 63.99 63.41 63.14 66.38 65.60 64.53 64.28 63.81 63.63 63.63 63.15 62.98 63.06 63.42 64.74 65.28 64.88 65.26 64.85 64.98 66.31 66.24 66.05 65.11 62.76
65.96 65.85 65.80 65.88 66.28 67.17 67.80 67.05 67.95 68.47 68.04 67.99 67.37 65.69 65.66 65.13 64.44 64.61 63.97 63.01 62.80 64.18 63.70 63.20 63.06 62.57 62.02 62.16 61.78 61.64 61.30 61.14 61.07 62.15 62.38 62.62 63.26 63.67 64.72 66.03 65.80 65.42 64.43
65.68 66.40 66.06 65.31 65.76 65.75 66.87 67.50 67.75 68.66 69.43 68.37 67.56 66.74 65.98 65.29 63.92 63.70 63.61 63.18 62.88 62.92 62.53 62.58 62.12 62.00 61.48 61.40 62.24 60.47 59.68 59.24 58.94 59.32 60.44 61.03 62.66 61.80 62.32 63.29 62.93 64.40 64.70
65.63 66.10 65.83 65.16 65.03 65.07 66.49 67.26 66.23 65.77 67.51 68.04 66.72 66.23 66.02 64.92 64.01 63.60 63.44 62.92 62.88 62.49 62.13 61.43 61.06 61.10 60.70 59.80 59.36 58.43 57.66 57.40 57.42 57.80 58.56 59.73 61.21 61.29 60.78 60.21 60.07 60.07 62.04
63.64 64.94 64.87 64.30 64.65 64.76 65.98 64.49 62.61 66.45 66.92 67.59 66.32 65.56 65.30 64.76 64.29 63.93 64.26 63.16 62.70 61.93 60.67 59.81 59.90 60.66 60.75 60.15 59.51 57.99 56.53 56.63 56.65 57.21 58.79 59.21 58.40 57.68 58.66 59.31 58.62 61.17 61.31
59.73 62.00 64.14 64.14 64.04 62.62 63.03 63.09 62.40 65.76 66.79 67.09 66.57 66.03 64.80 64.94 64.90 64.37 63.72 63.02 62.70 61.08 59.76 58.75 58.03 58.28 58.76 59.57 59.15 58.47 56.33 55.22 54.92 55.16 55.52 56.09 59.34 60.48 61.16 58.48 57.36 57.28 59.73
61.78 64.09 64.75 65.02 64.66 62.92 61.64 63.24 62.60 64.73 66.35 67.55 66.52 66.83 65.23 65.23 65.10 64.11 62.88 62.56 61.01 59.47 58.95 57.33 56.25 54.71 55.68 56.21 60.09 59.59 57.27 56.71 54.96 53.05 51.39 52.43 53.63 54.68 58.26 59.72 60.80 58.60 56.15
61.57 64.38 60.91 65.14 64.98 65.31 64.78 62.11 62.28 65.81 67.10 67.67 67.61 67.28 66.38 65.18 64.57 64.22 63.58 62.81 61.11 59.90 57.81 55.79 54.29 52.49 52.49 55.76 57.46 58.77 56.63 54.50 52.57 51.59 49.88 49.74 50.02 49.26 49.09 53.91 55.30 56.28 57.87
61.72 63.44 60.80 66.05 66.09 66.79 66.06 65.95 65.52 64.72 64.91 65.09 65.54 66.39 66.53 65.52 64.36 64.16 63.51 62.92 61.55 59.67 57.98 54.56 53.24 51.38 51.00 54.01 54.77 56.20 54.08 53.12 52.53 51.53 50.66 49.03 47.73 47.65 46.32 45.74 46.03 46.65 49.63
61.88 64.71 65.31 65.44 66.92 65.81 64.89 64.56 64.31 63.73 62.70 61.64 61.19 61.48 63.29 64.47 65.27 64.43 63.82 63.24 61.32 59.50 57.44 55.01 53.39 50.73 49.52 50.42 53.25 53.03 51.18 49.93 49.15 49.80 50.21 49.44 50.18 52.58 51.38 47.30 45.57 45.08 45.55
63.75 63.75 64.97 65.74 65.45 63.98 64.83 65.43 64.75 63.51 60.35 59.14 59.55 60.83 60.67 61.95 64.33 65.57 63.95 63.15 61.75 58.72 56.35 53.81 52.60 51.62 49.22 48.41 50.09 52.27 50.60 48.70 48.01 47.20 46.45 50.77 49.20 51.57 49.99 48.22 47.99 47.76 47.27
62.80 63.16 62.76 62.30 62.04 61.17 62.25 61.93 60.61 59.46 58.72 57.64 58.06 58.68 59.16 60.23 63.73 64.12 63.37 60.39 58.48 54.87 52.42 51.20 50.45 49.46 47.36 48.71 47.75 51.43 53.25 51.45 49.50 46.91 45.53 44.53 47.96 46.39 48.68 49.31 47.98 47.12 47.45
61.14 61.27 60.03 59.25 59.11 58.20 59.32 59.09 56.13 56.09 56.51 55.71 55.99 56.57 57.46 57.30 59.69 63.14 61.08 59.22 56.45 53.40 51.41 51.15 50.70 50.85 49.22 47.80 47.03 48.82 51.34 51.60 49.72 47.35 46.46 44.44 44.78 43.99 44.22 44.44 45.88 46.42 46.80
60.80 61.09 58.56 57.28 57.50 58.60 58.00 56.47 55.04 54.87 55.79 55.41 54.34 55.33 54.45 54.57 56.05 58.56 58.77 56.98 55.51 54.06 52.31 51.37 50.83 50.41 50.64 49.57 46.57 46.55 48.13 49.28 47.48 46.37 46.75 47.00 43.92 43.67 44.00 46.18 45.36 44.84 42.38
59.02 59.46 59.33 57.70 56.87 57.24 56.77 55.69 55.71 55.73 57.40 55.85 55.53 52.70 52.07 51.91 53.19 53.98 55.00 55.11 54.20 53.12 52.01 50.93 50.73 50.68 48.39 47.24 48.18 48.22 47.38 48.12 47.91 48.93 45.68 46.64 46.04 45.80 44.92 44.91 43.38 43.31 40.56
58.43 58.44 57.84 57.14 56.39 56.96 56.39 56.19 57.54 55.57 54.35 54.46 51.99 50.60 50.54 50.19 48.77 47.40 49.62 51.07 49.95 52.35 52.51 51.82 51.63 50.29 47.58 46.39 43.72 44.79 46.20 46.00 44.95 46.20 45.05 46.26 45.85 44.14 43.43 42.63 42.00 40.27 39.77
57.85 57.51 57.67 57.48 57.50 57.96 57.52 54.73 54.03 53.03 51.79 49.29 48.59 48.72 49.13 49.01 49.08 47.31 45.14 45.04 44.29 43.46 45.28 46.46 48.04 47.41 45.14 41.86 40.67 40.30 40.80 41.30 42.63 43.86 40.29 40.87 42.07 40.10 39.33 39.67 40.55 39.72 40.65

GFSMW_sfc_wetblb_036.txt.gz
Wetbulb
67.92 68.69 70.08 71.08 71.14 71.26 71.41 71.21 69.99 68.60 68.33 67.43 66.89 67.16 67.25 68.29 69.91 69.80 70.00 69.58 69.12 68.71 68.71 69.01 69.36 70.48 69.88 69.94 69.14 68.31 67.45 66.57 66.49 66.17 66.02 66.74 68.20 68.64 69.44 70.35 70.39 71.59 72.97
66.83 67.92 69.95 70.78 70.51 70.23 70.71 69.59 68.04 67.38 67.21 66.67 66.78 67.07 68.04 68.74 69.95 69.84 71.25 71.03 70.72 69.78 68.38 68.03 69.78 69.81 69.43 69.34 69.00 68.02 66.98 66.39 66.26 64.98 64.62 64.10 65.53 66.06 68.35 69.63 70.02 70.17 71.49
65.83 68.46 69.64 69.86 70.23 69.57 69.63 68.29 67.99 66.76 66.00 66.44 68.53 68.48 67.85 68.84 68.60 68.06 69.07 69.54 70.39 70.31 70.25 69.81 69.37 69.07 68.85 68.56 68.47 67.95 67.25 65.09 67.09 66.81 65.93 61.84 61.92 64.14 65.58 67.85 69.05 70.25 70.68
64.89 62.81 62.11 61.43 65.29 68.76 68.75 68.17 67.07 65.96 65.93 68.21 67.96 68.10 66.98 66.64 67.52 67.88 68.13 68.62 69.48 69.65 70.17 70.00 69.66 69.47 69.12 68.56 68.53 68.85 67.72 66.89 65.39 67.58 67.45 67.25 65.94 61.87 60.30 66.58 66.00 69.38 69.23
64.14 62.21 62.11 61.11 63.55 64.92 68.06 67.52 66.76 65.87 66.29 67.58 68.55 68.37 67.61 67.61 67.39 67.19 67.79 67.97 68.04 68.30 68.67 69.38 69.18 68.87 69.05 69.03 68.71 68.60 68.67 67.56 66.66 66.39 66.23 66.64 67.27 67.46 65.08 62.53 64.01 66.96 67.93
63.41 61.36 61.80 62.17 64.18 65.46 68.29 68.26 66.40 65.75 67.30 67.20 68.83 68.44 67.50 66.54 66.45 66.56 66.62 66.76 66.73 66.94 67.61 68.59 68.78 68.89 69.05 69.01 68.87 68.78 68.42 68.24 67.68 67.25 66.94 66.17 65.86 65.45 64.22 62.82 62.85 63.26 66.18
63.24 62.54 63.00 63.06 62.48 63.57 68.51 67.88 66.58 66.64 66.58 66.95 69.49 68.32 67.50 66.76 66.56 66.27 66.13 65.46 65.53 65.80 66.84 67.97 67.93 68.02 68.56 68.92 68.76 68.40 68.22 68.26 67.47 67.34 67.02 67.66 67.84 67.52 66.98 64.86 63.72 63.66 64.83
61.23 62.76 63.14 61.10 60.60 67.10 68.51 67.63 66.29 66.11 68.08 69.16 68.08 67.77 67.07 66.89 66.72 66.34 66.25 65.80 65.59 66.29 68.81 67.43 67.05 67.07 67.68 68.02 67.81 67.47 67.81 67.68 67.41 67.14 67.45 68.04 68.35 69.02 67.66 66.08 64.66 62.05 63.04
61.25 62.32 62.98 66.56 69.00 68.80 67.86 66.76 66.34 67.63 68.49 68.22 67.16 67.05 67.03 66.78 65.98 65.73 66.00 65.71 65.67 67.46 66.14 65.87 65.44 65.26 65.37 65.59 65.70 65.30 65.46 66.51 67.27 67.09 67.37 67.32 67.97 68.98 68.73 67.97 67.70 65.32 60.47
61.32 62.59 65.31 67.30 69.23 68.80 67.88 67.34 68.21 68.10 67.99 67.61 67.43 66.40 66.29 66.36 65.67 65.71 65.09 64.47 65.66 66.09 65.04 64.55 64.49 64.19 64.31 64.19 64.00 63.80 64.11 64.42 64.94 65.40 66.01 66.61 67.47 68.13 68.71 67.70 67.93 67.50 64.26
61.58 64.64 66.42 67.07 68.51 68.55 67.34 67.86 68.22 67.36 67.59 68.21 67.25 66.34 66.34 65.71 65.67 65.09 64.63 64.31 64.76 64.63 64.23 64.01 63.50 63.06 63.16 63.48 63.06 62.58 62.26 62.23 62.73 63.61 64.19 64.51 65.46 65.89 67.02 68.47 68.31 67.14 66.28
63.72 66.34 66.40 66.13 66.92 67.43 66.85 68.06 68.38 68.35 68.69 68.66 67.43 66.78 66.31 65.82 65.31 64.96 64.51 64.60 63.89 63.96 63.73 63.15 62.74 62.31 61.69 61.07 60.69 60.44 60.63 60.48 60.81 61.33 62.57 61.94 63.49 63.15 64.41 65.44 65.80 66.98 66.17
64.72 65.80 65.58 65.07 65.82 66.35 66.94 67.70 67.92 68.00 68.17 68.10 67.40 66.63 66.27 65.59 65.13 64.52 64.42 64.51 63.73 63.21 62.93 62.80 62.12 61.71 61.05 60.21 59.81 59.51 59.54 59.55 59.85 60.75 61.23 61.49 62.27 61.72 61.98 62.59 62.69 64.05 64.13
61.49 64.84 64.59 64.68 65.32 66.01 66.58 66.78 64.58 67.12 67.87 68.33 67.23 66.45 65.98 65.82 65.66 65.24 64.51 64.33 63.91 62.48 61.88 61.81 62.14 62.06 61.59 60.47 59.44 58.79 58.29 58.15 57.66 58.19 58.99 59.96 60.83 61.36 61.65 61.50 61.84 62.51 61.48
59.70 61.08 63.95 63.90 64.20 63.50 64.04 64.16 63.82 66.22 67.27 68.14 67.40 66.34 66.35 66.29 65.66 65.53 65.15 64.27 63.24 61.69 61.29 60.30 59.75 59.96 60.65 60.66 59.41 58.65 58.14 57.76 56.06 55.39 56.05 59.11 61.07 61.55 61.83 61.11 61.11 62.32 60.92
61.42 62.28 63.22 64.32 63.49 63.70 63.14 63.57 63.81 64.88 67.16 67.91 67.58 66.81 66.36 66.02 65.48 65.55 64.45 63.87 61.97 60.95 60.27 58.81 57.95 57.85 58.58 58.11 59.80 59.61 58.07 56.24 54.27 53.64 53.78 54.19 55.37 57.28 58.57 59.30 59.85 60.54 61.60
60.50 63.48 64.40 62.21 60.96 62.35 63.41 62.99 63.72 64.94 66.52 67.81 67.56 67.52 66.15 65.95 65.41 64.81 63.86 62.20 61.09 60.77 58.52 57.18 56.50 56.18 58.04 56.45 57.70 58.61 56.55 55.34 54.37 53.07 52.18 51.51 51.33 53.40 54.57 54.91 54.97 55.30 56.96
59.10 63.33 64.83 63.16 64.30 64.36 63.60 62.91 66.00 66.09 66.56 66.87 67.88 67.66 66.80 65.82 65.25 64.37 63.60 63.30 61.47 60.02 57.44 55.40 55.06 55.23 54.74 54.26 54.76 56.10 55.96 54.78 53.84 53.68 53.46 52.21 52.13 52.47 52.46 52.32 51.33 51.68 53.76
60.65 63.81 65.73 66.40 64.25 63.06 64.98 65.05 65.38 65.53 65.34 63.61 64.14 64.13 66.17 65.70 65.02 64.21 63.48 62.95 60.89 59.40 57.05 55.29 55.01 54.09 53.04 51.73 52.55 54.96 54.24 52.93 52.08 52.08 53.54 54.19 53.78 51.96 51.32 51.62 51.10 51.65 51.55
63.32 63.88 65.68 66.05 65.97 65.58 65.38 65.03 64.70 63.28 61.91 61.41 61.40 61.51 62.33 64.05 64.92 65.09 64.17 63.03 60.67 58.40 54.87 53.31 53.25 51.98 51.52 48.57 51.10 53.26 53.31 52.02 51.43 50.90 50.61 50.82 52.99 50.34 50.01 53.50 52.73 51.87 51.91
62.27 63.79 63.03 61.47 61.05 61.89 63.95 63.02 60.46 59.81 59.00 59.16 59.80 59.59 60.06 61.81 63.09 65.15 63.57 61.27 58.52 55.16 53.49 51.96 51.32 50.30 49.78 50.53 49.76 50.60 55.00 52.80 51.18 50.55 48.97 48.73 47.75 47.03 46.96 48.69 52.31 52.22 53.21
61.29 61.54 60.06 59.34 59.38 60.47 60.90 58.12 57.21 57.61 58.22 58.72 58.38 58.64 59.12 59.83 61.70 62.96 60.51 58.02 56.45 53.35 52.00 52.32 52.02 52.48 50.95 47.93 47.81 50.70 50.87 51.96 51.98 48.92 48.44 48.57 44.69 43.74 44.53 46.81 45.17 46.18 48.04
60.76 60.28 58.84 58.04 58.10 58.68 59.66 57.76 57.01 58.64 58.17 58.13 57.55 56.75 56.49 56.17 57.72 60.53 58.56 56.79 55.49 53.70 53.60 53.24 52.00 51.56 51.92 51.24 46.44 46.70 48.11 49.34 48.10 47.59 47.79 46.15 43.57 43.96 46.71 46.04 45.43 46.33 49.02
59.91 60.22 59.22 57.71 56.89 57.71 57.07 56.41 57.79 58.19 57.87 56.07 55.41 54.65 54.31 54.04 55.03 55.91 56.99 56.35 55.26 53.82 53.05 52.47 51.37 51.05 48.62 49.30 49.89 49.93 49.71 49.18 48.83 48.90 48.72 47.87 47.43 46.77 47.21 48.97 47.68 48.46 47.58
59.00 59.26 58.15 57.11 56.39 56.85 56.73 57.13 56.71 56.97 56.43 56.31 55.11 52.50 52.16 51.79 49.72 47.78 50.29 53.01 51.05 53.46 53.58 52.94 52.55 50.17 48.05 47.56 44.70 46.95 47.86 46.43 47.11 48.61 47.94 49.24 49.72 49.96 49.24 48.64 47.64 47.15 46.89
58.64 58.38 57.79 57.55 57.31 57.31 56.85 55.77 56.89 56.05 54.76 52.60 51.80 51.62 51.27 50.87 50.32 49.85 48.01 45.18 44.43 43.40 44.57 46.42 49.19 49.52 44.80 41.21 40.61 40.61 40.88 41.14 42.49 47.01 46.10 47.76 47.66 46.85 46.79 47.18 47.81 47.07 46.26

GFSMW_sfc_wetblb_042.txt.gz
Wetbulb
73.37 74.75 74.83 74.15 71.50 71.56 66.17 65.27 64.47 73.98 74.45 73.67 74.93 73.59 69.43 70.24 72.52 71.04 72.89 75.02 75.78 75.29 76.80 77.34 75.95 75.89 74.91 74.76 75.49 74.59 74.12 74.22 73.95 72.76 71.46 72.12 73.95 73.80 73.38 73.41 72.59 73.05 73.53
72.74 72.53 72.89 73.53 71.73 69.66 70.48 70.80 71.25 76.30 76.34 75.66 75.29 73.69 70.14 71.49 71.12 72.04 72.80 75.36 72.42 75.78 75.87 75.80 75.32 75.58 75.50 75.18 74.87 74.76 73.98 73.38 74.02 70.69 69.96 67.99 70.53 72.10 73.31 73.50 73.22 73.61 73.22
71.71 71.75 71.94 72.78 71.33 70.64 72.32 72.18 74.20 75.63 76.08 74.81 73.71 72.94 73.12 72.00 70.77 72.05 74.05 75.83 75.10 75.80 75.86 75.12 75.36 75.28 74.68 72.74 74.67 74.16 73.43 70.58 71.78 72.80 70.25 68.16 65.70 71.12 72.64 72.90 73.20 74.28 72.69
72.13 72.21 72.43 69.48 71.84 72.63 73.56 72.88 73.80 75.42 74.70 75.21 73.95 73.40 71.55 70.31 72.93 72.95 75.09 73.54 74.68 74.44 74.45 74.55 74.48 74.48 73.96 74.53 73.94 74.16 73.91 72.81 70.67 71.11 71.75 72.15 72.22 69.26 68.56 71.97 72.04 72.89 71.78
71.59 71.49 71.33 68.80 71.14 71.68 74.10 74.92 75.50 74.63 74.64 75.33 75.09 74.24 73.09 74.18 72.36 72.59 74.04 74.35 74.31 73.31 72.93 73.48 73.76 74.08 75.96 75.32 74.64 74.12 73.96 73.33 72.33 71.83 70.25 70.62 71.09 72.54 70.45 68.25 68.20 70.67 70.21
70.77 71.73 71.18 69.02 70.03 71.74 74.13 74.84 74.84 74.09 74.80 74.69 75.53 74.88 74.00 73.51 72.43 72.44 71.29 71.99 72.21 71.71 73.07 73.10 72.30 72.77 74.41 74.71 74.72 74.59 73.73 72.44 72.46 71.23 70.27 70.95 69.79 69.36 70.96 69.92 69.47 69.00 67.77
70.51 68.70 68.59 68.19 69.23 69.61 72.17 74.73 74.45 73.11 73.92 74.22 74.66 74.84 73.98 73.78 72.92 72.02 70.84 70.16 70.44 69.53 71.87 72.76 72.47 71.70 73.80 74.50 74.42 74.11 73.69 73.63 73.31 72.38 71.95 71.28 72.86 73.73 73.35 71.87 69.20 65.08 67.83
69.89 69.54 69.54 68.45 68.50 69.20 71.76 73.17 74.01 72.76 73.48 74.10 74.97 75.56 74.11 72.06 71.77 71.59 70.90 70.61 70.04 70.39 71.09 72.07 71.90 71.97 72.71 73.26 73.00 71.56 72.02 73.10 74.06 72.08 73.58 73.43 73.21 74.55 73.97 71.71 70.10 66.20 65.05
71.89 69.83 69.57 68.13 71.45 71.75 72.62 74.16 73.19 72.99 73.13 74.38 74.92 74.74 74.65 72.71 72.08 71.89 72.36 70.52 71.18 70.59 71.23 70.36 70.27 71.14 71.46 71.85 72.23 70.84 70.00 70.75 70.68 72.15 72.59 73.63 74.73 75.31 74.88 72.81 70.25 69.39 64.65
68.07 69.34 71.26 72.24 74.08 74.81 73.81 73.23 73.31 72.90 73.46 73.67 73.73 73.78 73.43 72.85 72.30 72.71 71.21 71.45 71.39 71.37 71.18 69.79 69.65 70.09 70.87 71.67 72.02 71.13 70.47 70.89 70.47 70.50 70.93 71.80 72.84 74.98 75.20 74.09 70.79 70.43 69.01
68.25 69.83 71.52 73.74 74.90 73.62 72.16 72.95 72.58 73.09 72.03 70.63 73.51 73.42 72.69 72.26 71.59 71.01 70.91 71.13 70.85 70.84 70.63 69.63 69.84 69.70 69.91 69.81 69.86 70.14 69.50 68.40 68.52 69.20 69.25 69.42 70.94 70.36 71.80 73.30 73.36 72.49 70.18
68.78 70.08 71.59 73.80 72.61 70.40 69.55 71.26 72.25 72.05 70.67 69.93 72.87 73.00 72.54 71.95 71.01 70.52 70.83 71.21 70.06 70.41 70.12 69.98 69.89 69.65 69.43 69.64 69.29 68.56 68.81 67.35 66.60 67.16 68.23 68.94 69.55 70.20 70.18 70.52 69.21 71.35 71.18
69.26 70.90 71.81 71.31 70.61 68.37 70.11 70.93 71.40 70.74 68.52 71.88 72.86 72.85 72.33 71.81 71.16 70.64 70.56 70.72 69.90 69.72 69.65 69.31 68.46 68.47 68.52 68.33 68.33 68.21 68.18 68.12 66.65 66.38 66.87 66.49 67.68 66.65 66.55 67.58 66.95 67.03 67.83
69.20 71.24 69.71 70.18 67.56 66.43 67.31 70.87 70.66 71.29 70.52 70.80 72.56 72.58 72.38 72.02 71.52 71.37 70.94 70.15 70.31 69.69 69.17 68.98 68.10 67.85 67.74 67.32 67.21 66.81 67.27 67.21 67.41 67.38 66.99 66.82 66.68 66.52 67.47 66.86 67.82 67.58 65.33
69.16 70.03 68.68 69.95 67.05 66.95 69.49 70.95 70.95 71.22 71.80 70.84 71.83 72.66 73.09 72.55 72.36 71.34 70.52 70.39 69.99 69.39 69.17 68.77 68.50 67.81 66.80 66.09 66.73 64.80 66.03 65.97 65.75 66.51 66.06 65.16 62.55 60.39 61.80 67.02 67.27 67.77 65.59
66.37 69.14 70.25 70.46 67.08 68.55 69.69 70.56 71.25 71.33 71.47 71.25 71.27 72.63 72.45 72.22 71.76 71.16 70.10 70.26 69.91 69.18 68.81 68.31 67.98 67.23 64.97 59.15 60.05 63.28 64.06 63.94 63.33 63.20 64.22 65.18 64.50 61.02 59.58 60.29 60.17 62.14 66.28
66.91 68.48 69.53 70.77 69.42 69.71 70.04 70.45 70.77 71.71 71.20 71.50 72.32 72.59 72.44 71.80 71.79 71.22 69.89 69.11 69.15 68.52 67.51 67.79 68.09 67.02 65.39 57.75 57.89 60.85 63.96 63.04 62.99 62.90 62.63 62.56 62.64 63.64 64.44 60.48 60.35 59.55 59.36
66.22 67.61 70.48 71.03 70.84 70.06 71.10 69.69 68.95 67.17 70.41 71.26 71.85 72.92 71.73 71.66 71.33 70.89 70.11 69.44 69.10 67.40 66.29 66.60 67.75 66.78 63.06 56.14 56.36 59.22 64.83 64.18 63.70 63.56 63.20 61.78 60.10 59.18 62.23 62.18 59.90 57.80 58.68
68.97 71.23 72.07 71.84 72.57 71.30 70.45 69.52 67.47 67.36 68.64 70.49 71.24 71.74 72.26 71.16 70.27 68.82 70.08 69.55 68.03 67.64 66.26 66.68 66.95 65.64 63.47 53.78 54.56 59.51 64.26 63.21 63.21 63.16 62.88 62.97 59.72 52.61 54.06 60.62 59.23 57.72 55.46
68.39 69.82 71.17 71.77 70.77 70.49 69.67 68.22 67.45 67.70 69.45 69.96 70.17 69.15 70.72 70.59 69.33 69.54 70.39 68.92 68.51 66.65 66.06 64.68 65.17 59.69 63.96 51.18 52.00 57.74 63.20 60.56 60.75 62.63 61.51 53.13 57.30 52.20 52.22 61.19 60.04 58.44 58.52
65.53 68.61 70.01 70.43 69.59 70.15 70.00 68.74 68.37 68.79 69.53 68.22 68.52 67.91 68.82 68.83 69.61 69.79 69.98 67.45 66.57 65.91 64.85 62.54 61.32 63.04 61.61 60.60 50.31 51.82 59.47 59.81 59.54 58.47 59.43 58.62 48.70 46.76 47.68 49.51 59.41 58.06 59.46
64.43 65.32 64.69 64.49 65.82 67.16 69.76 68.60 65.38 64.44 65.35 66.19 67.02 67.21 67.03 67.62 69.05 68.01 66.82 64.85 63.65 63.72 63.34 62.94 61.77 61.27 62.29 51.16 50.26 50.01 52.55 54.89 56.41 54.11 54.98 52.09 45.89 45.04 46.11 51.77 46.78 48.08 51.29
66.19 66.54 66.32 65.56 65.33 65.45 66.29 66.97 64.87 65.00 64.63 64.69 63.59 63.92 64.82 66.04 66.87 67.41 62.40 60.91 61.43 62.37 59.47 59.64 60.61 59.10 61.45 60.11 48.30 48.05 49.69 51.73 54.50 54.79 50.82 46.49 44.55 45.43 47.77 47.25 47.89 47.44 57.21
66.48 67.55 66.96 66.05 65.54 65.10 64.89 64.23 63.81 63.44 63.32 63.25 63.10 63.27 62.41 61.93 62.34 62.38 61.78 60.37 61.41 60.08 57.90 60.04 60.37 60.20 58.81 59.49 59.58 58.98 54.82 50.28 53.59 49.99 50.08 50.76 50.56 48.38 52.86 53.06 54.58 56.20 55.22
66.95 66.74 66.16 65.43 64.22 64.28 62.78 62.21 61.85 62.25 62.15 61.65 61.35 61.29 60.09 58.49 54.53 51.93 55.38 59.47 58.49 60.52 59.73 59.87 58.97 59.76 60.13 58.05 51.36 52.73 56.56 56.31 52.54 53.23 53.59 54.62 56.73 57.41 57.30 56.48 56.62 56.23 56.56
67.15 67.00 66.18 65.87 64.73 64.73 63.23 62.60 62.43 61.58 61.12 60.89 61.48 61.89 61.77 57.71 55.30 54.60 51.95 45.78 45.85 44.76 46.98 48.33 54.60 56.84 46.61 41.98 41.93 41.29 41.62 42.91 44.42 53.71 56.13 57.13 57.28 56.87 55.41 55.59 54.39 54.56 54.05

GFSMW_sfc_wetblb_048.txt.gz
Wetbulb
71.56 73.02 70.65 69.56 67.73 70.48 73.87 72.73 71.35 71.26 73.62 75.41 74.45 70.55 69.94 70.09 69.26 71.64 71.54 72.74 72.64 74.01 74.09 73.26 74.69 74.74 74.97 74.43 74.19 73.58 72.98 73.28 73.66 72.13 71.43 72.23 73.19 73.15 73.11 73.05 72.54 71.62 73.45
71.90 71.72 69.68 69.70 70.78 71.72 72.48 73.39 71.64 75.17 76.41 76.81 77.06 73.87 71.05 70.22 70.48 69.91 71.11 71.69 72.70 73.51 74.91 74.17 73.10 73.24 74.03 74.07 74.02 73.64 73.15 73.07 74.08 70.65 70.45 67.37 69.59 71.69 71.83 71.38 72.00 70.77 72.35
71.96 71.56 70.75 70.05 71.03 71.56 72.33 73.26 73.45 75.47 77.48 77.31 74.75 74.08 73.74 70.07 69.48 69.63 71.00 72.06 73.29 73.35 72.97 74.48 74.77 75.26 74.99 73.48 74.34 74.85 73.59 71.39 73.48 73.33 70.04 66.81 65.78 68.52 71.18 70.09 70.17 71.30 71.20
73.86 73.56 71.72 71.13 71.56 72.65 73.62 75.70 76.13 76.42 77.77 77.81 74.70 75.05 73.59 71.82 72.23 73.99 73.31 73.00 74.85 74.29 74.65 75.01 74.44 73.62 74.82 74.51 74.34 74.88 74.14 73.27 70.72 72.83 72.04 71.19 70.27 66.86 65.16 68.90 70.13 70.60 71.02
73.68 73.19 72.82 72.40 73.12 72.79 73.82 74.42 76.15 77.02 77.10 77.77 77.29 75.59 75.29 75.37 74.16 74.30 75.27 75.39 72.79 73.92 73.59 73.76 74.39 74.47 74.80 75.20 74.79 75.05 74.47 73.93 71.78 71.75 71.41 70.64 69.91 70.16 68.02 65.20 67.30 68.38 69.02
72.62 73.84 73.54 73.12 73.75 73.79 73.81 73.56 75.90 76.90 77.24 77.34 76.75 77.12 75.76 75.53 73.42 73.47 72.81 73.10 73.42 72.55 74.30 73.45 73.85 74.55 74.32 74.53 74.66 73.72 73.45 73.69 73.21 72.38 72.17 70.57 69.34 68.63 68.30 66.81 66.29 64.92 65.92
72.48 73.22 71.44 71.11 72.85 72.88 74.33 73.57 74.89 74.79 76.09 76.32 75.80 76.05 75.80 75.56 74.35 73.62 72.31 69.69 70.33 70.27 71.56 72.07 73.14 73.60 74.17 74.21 74.10 73.71 73.78 73.27 72.22 71.57 71.48 71.77 70.95 71.31 70.75 68.27 65.63 64.49 66.12
72.30 71.15 71.08 71.41 71.27 72.41 74.37 75.25 73.97 74.66 75.51 75.33 76.10 76.27 76.08 73.86 72.63 73.18 71.98 71.40 71.07 71.21 72.46 72.01 72.56 72.27 73.15 73.03 73.30 72.70 72.69 72.43 72.43 71.94 71.41 71.78 72.25 71.66 70.39 67.57 65.93 63.77 65.88
70.63 71.44 70.38 70.01 70.83 72.43 74.49 74.99 74.90 75.04 74.91 74.25 74.34 75.15 74.46 74.46 72.58 73.90 75.28 71.32 72.51 71.45 71.67 70.58 70.75 71.25 71.11 72.56 73.58 70.95 70.39 71.88 72.23 71.67 71.85 71.77 71.52 71.80 71.93 71.41 68.77 66.92 63.52
71.31 70.79 69.01 70.56 70.93 71.59 73.44 75.49 74.95 75.12 75.42 73.25 73.03 74.35 74.25 74.04 73.79 74.19 73.06 72.73 71.99 71.48 71.42 70.26 70.19 70.36 70.78 72.09 71.69 70.01 69.92 69.40 69.29 69.52 70.07 70.74 71.70 71.91 72.35 71.76 71.07 69.80 67.32
70.37 70.11 70.75 72.82 72.31 73.10 74.18 73.95 74.14 74.71 74.38 73.56 73.27 74.19 73.32 73.41 73.18 73.26 72.63 72.25 72.54 70.29 70.90 70.68 70.49 70.24 71.31 71.79 71.41 70.03 68.85 68.25 68.50 68.98 68.88 69.03 70.21 70.30 71.07 70.79 70.63 69.50 67.10
70.04 71.20 72.05 73.09 73.17 71.93 72.86 73.45 74.14 74.01 73.67 72.32 70.70 71.11 73.30 72.61 72.67 72.47 71.86 72.59 72.78 72.68 71.77 70.86 71.13 70.91 70.50 70.91 70.34 68.34 67.75 67.12 65.76 66.51 67.54 67.48 68.21 68.02 68.68 68.96 69.25 68.97 68.24
69.97 70.61 71.96 73.52 71.98 71.78 72.03 72.87 73.15 72.32 71.69 72.57 70.87 72.56 72.41 72.31 72.54 72.43 72.26 72.12 72.30 71.96 70.93 70.99 70.36 69.67 69.73 69.72 69.83 68.97 67.71 66.83 65.67 65.66 65.47 66.07 68.10 66.92 68.46 68.16 66.65 65.79 64.55
70.13 71.00 73.60 74.49 71.58 72.32 71.78 71.86 71.40 70.96 70.74 71.00 72.24 71.99 72.76 72.49 72.16 72.95 72.60 72.35 72.31 71.28 70.92 70.93 70.42 70.41 69.48 68.58 68.87 68.28 68.46 66.99 65.55 64.60 64.01 63.61 63.64 65.01 68.20 67.82 65.72 63.53 61.51
69.29 71.61 72.64 73.39 70.81 70.18 72.27 72.39 72.39 70.99 70.47 69.94 70.98 72.49 73.54 73.47 72.75 72.60 72.48 72.27 72.12 71.29 71.34 70.57 70.47 69.92 66.03 62.72 64.14 67.97 67.35 67.06 65.86 64.87 63.32 62.71 62.67 62.40 62.09 65.40 65.52 62.69 60.18
68.95 71.11 71.39 72.49 70.14 69.54 71.20 72.41 72.46 72.01 71.15 70.87 72.28 73.35 73.28 72.16 72.54 72.78 71.72 72.18 71.33 71.38 71.69 70.78 69.38 65.95 62.68 60.52 61.52 65.22 66.26 66.52 66.25 65.38 64.98 64.47 63.47 61.11 60.51 60.88 61.00 64.61 62.53
68.13 69.53 71.34 72.73 70.11 70.36 71.89 72.41 72.34 73.91 70.66 71.70 72.54 72.52 73.12 72.73 72.09 72.39 71.68 70.51 71.00 71.37 71.08 69.19 67.74 65.25 63.15 60.40 61.26 61.56 66.84 65.82 65.83 64.42 63.18 63.31 61.47 63.26 61.74 60.33 60.44 59.30 60.20
68.19 69.44 71.56 72.86 71.84 71.71 72.68 73.48 72.90 73.57 73.07 71.38 71.29 71.00 71.15 71.32 70.25 72.25 71.33 70.72 70.71 70.26 69.87 69.85 68.73 65.92 60.94 58.75 58.46 59.79 67.73 66.61 65.93 64.34 62.69 62.92 60.78 56.99 59.63 57.49 55.72 55.27 56.65
71.27 72.03 73.51 73.96 72.97 72.26 73.48 72.45 72.01 72.74 72.22 70.86 70.14 68.15 69.88 70.43 70.29 70.98 71.03 71.45 70.44 69.85 69.01 69.33 68.15 66.10 62.79 57.00 57.11 57.40 67.61 65.78 64.64 63.10 60.72 61.90 60.41 53.44 53.34 58.63 56.61 55.10 52.97
71.01 71.35 72.94 73.64 71.91 73.54 73.69 72.29 70.63 69.84 69.78 68.83 68.65 67.99 68.30 68.38 68.51 69.84 71.28 71.11 69.83 68.92 68.00 68.21 68.23 64.26 64.68 54.34 54.13 55.81 62.40 64.66 62.82 62.79 59.77 52.77 53.96 51.50 51.02 62.40 60.07 56.78 55.51
70.09 72.25 73.12 71.84 72.75 73.25 72.18 70.69 69.69 68.70 68.97 69.83 67.71 66.47 67.35 66.51 68.18 68.16 69.15 70.14 70.16 68.71 67.66 67.45 66.66 66.82 65.09 60.20 53.76 53.08 64.88 62.61 62.08 61.74 59.05 54.48 50.09 50.15 50.13 50.66 57.92 57.38 57.46
69.08 70.05 69.25 68.96 70.38 72.53 71.70 70.54 70.46 69.97 69.80 69.16 67.99 67.28 66.81 67.19 67.80 68.55 67.75 67.93 67.28 67.57 66.72 66.03 65.38 65.73 64.95 57.56 51.34 52.77 54.53 60.26 61.92 59.52 58.57 53.02 47.60 47.33 48.90 52.89 49.85 51.53 51.64
67.73 68.31 67.71 68.29 68.86 69.61 70.66 70.05 69.52 70.09 69.38 68.07 67.93 66.72 66.72 66.84 66.18 67.21 69.88 67.16 66.26 65.21 64.94 63.68 63.49 63.58 64.16 61.13 49.91 50.31 51.88 54.22 59.77 59.80 54.02 48.47 45.67 46.26 47.52 50.61 50.73 50.06 55.41
68.47 68.94 68.06 66.81 66.22 66.86 67.28 67.06 67.31 67.60 66.90 66.17 65.43 65.12 65.21 64.69 64.77 65.11 66.29 65.38 63.77 63.06 62.51 62.63 62.91 62.85 63.23 61.45 58.78 57.07 56.19 52.20 56.15 52.20 52.00 51.82 52.99 52.95 53.35 52.98 53.69 56.41 55.59
68.91 68.63 68.13 66.69 66.22 66.25 65.77 65.87 65.53 65.50 64.59 64.23 63.74 63.54 63.40 62.43 59.38 54.97 53.36 59.62 60.09 59.94 61.62 61.89 62.31 62.13 62.19 61.86 57.34 57.81 60.11 58.41 56.40 55.46 54.13 53.58 53.99 55.27 55.23 56.22 57.73 57.11 55.52
67.92 67.81 67.28 66.85 66.59 66.33 65.77 65.32 65.52 65.94 64.56 63.26 63.12 63.18 62.41 60.20 57.12 54.40 53.12 47.40 45.94 44.94 45.38 47.00 55.82 53.72 48.39 43.63 43.93 44.07 45.26 46.19 47.44 54.56 53.02 52.26 54.03 55.15 56.65 56.44 56.17 54.99 54.38